Time,TemperatureF,DewpointF,PressureIn,WindDirection,WindDirectionDegrees,WindSpeedMPH,WindSpeedGustMPH,Humidity,HourlyPrecipIn,Conditions,Clouds,dailyrainin,SoftwareType,DateUTC
2012-11-03 00:00:00,32.9,23.5,30.13,West,270,6.0,11.0,68,0.00,,,0.13,meteohub,2012-11-03 04:00:00,
2012-11-03 00:05:00,32.9,23.5,30.13,West,270,11.0,11.0,68,0.00,,,0.00,meteohub,2012-11-03 04:05:00,
2012-11-03 00:06:00,32.9,23.5,30.13,NW,315,0.0,11.0,68,0.00,,,0.00,meteohub,2012-11-03 04:06:00,
2012-11-03 00:11:00,32.9,23.5,30.13,NW,315,10.0,11.0,68,0.00,,,0.00,meteohub,2012-11-03 04:11:00,
2012-11-03 00:12:00,32.9,23.5,30.13,NE,45,10.0,11.0,68,0.00,,,0.00,meteohub,2012-11-03 04:12:00,
2012-11-03 00:16:00,32.9,23.5,30.13,WSW,248,5.0,11.0,68,0.00,,,0.00,meteohub,2012-11-03 04:16:00,
2012-11-03 00:17:00,32.9,23.5,30.13,WSW,248,5.0,11.0,68,0.00,,,0.00,meteohub,2012-11-03 04:17:00,
2012-11-03 00:22:00,32.9,23.5,30.13,NW,315,8.0,12.0,68,0.00,,,0.00,meteohub,2012-11-03 04:22:00,
2012-11-03 00:23:00,32.9,23.5,30.13,NW,315,7.0,12.0,68,0.00,,,0.00,meteohub,2012-11-03 04:23:00,
2012-11-03 00:28:00,32.9,23.5,30.13,NW,315,6.0,12.0,68,0.00,,,0.00,meteohub,2012-11-03 04:28:00,
2012-11-03 00:29:00,32.9,23.5,30.13,North,0,6.0,12.0,68,0.00,,,0.00,meteohub,2012-11-03 04:29:00,
2012-11-03 00:33:00,32.9,23.5,30.13,WSW,248,4.0,11.0,68,0.00,,,0.00,meteohub,2012-11-03 04:33:00,
2012-11-03 00:34:00,32.9,23.5,30.13,WSW,248,4.0,11.0,68,0.00,,,0.00,meteohub,2012-11-03 04:34:00,
2012-11-03 00:35:00,32.9,23.5,30.13,WSW,248,2.0,11.0,68,0.00,,,0.00,meteohub,2012-11-03 04:35:00,
2012-11-03 00:38:00,32.7,23.4,30.13,NW,315,7.0,11.0,68,0.00,,,0.00,meteohub,2012-11-03 04:38:00,
2012-11-03 00:39:00,32.7,23.4,30.13,NW,315,7.0,11.0,68,0.00,,,0.00,meteohub,2012-11-03 04:39:00,
2012-11-03 00:40:00,32.9,23.5,30.13,North,0,10.0,10.0,68,0.00,,,0.00,meteohub,2012-11-03 04:40:00,
2012-11-03 00:44:00,32.7,23.4,30.13,WSW,248,5.0,8.0,68,0.00,,,0.00,meteohub,2012-11-03 04:44:00,
2012-11-03 00:45:00,32.7,23.4,30.14,NE,45,4.0,8.0,68,0.00,,,0.00,meteohub,2012-11-03 04:45:00,
2012-11-03 00:46:00,32.7,23.4,30.13,NE,45,4.0,10.0,68,0.00,,,0.00,meteohub,2012-11-03 04:46:00,
2012-11-03 00:49:00,32.7,23.4,30.14,NW,315,7.0,10.0,68,0.00,,,0.00,meteohub,2012-11-03 04:49:00,
2012-11-03 00:50:00,32.7,23.4,30.13,West,270,9.0,10.0,68,0.00,,,0.00,meteohub,2012-11-03 04:50:00,
2012-11-03 00:52:00,32.7,23.4,30.13,North,0,8.0,10.0,68,0.00,,,0.00,meteohub,2012-11-03 04:52:00,
2012-11-03 00:54:00,32.7,23.4,30.14,West,270,10.0,10.0,68,0.00,,,0.00,meteohub,2012-11-03 04:54:00,
2012-11-03 00:55:00,32.7,23.4,30.14,West,270,10.0,10.0,68,0.00,,,0.00,meteohub,2012-11-03 04:55:00,
2012-11-03 00:57:00,32.5,23.2,30.13,WSW,248,7.0,10.0,68,0.00,,,0.00,meteohub,2012-11-03 04:57:00,
2012-11-03 01:00:00,32.5,23.2,30.13,WSW,248,2.0,10.0,68,0.00,,,0.00,meteohub,2012-11-03 05:00:00,
2012-11-03 01:01:00,32.5,23.2,30.14,WSW,248,2.0,10.0,68,0.00,,,0.00,meteohub,2012-11-03 05:01:00,
2012-11-03 01:02:00,32.5,23.2,30.14,West,270,2.0,10.0,68,0.00,,,0.00,meteohub,2012-11-03 05:02:00,
2012-11-03 01:03:00,32.5,23.2,30.13,West,270,4.0,10.0,68,0.00,,,0.00,meteohub,2012-11-03 05:03:00,
2012-11-03 01:06:00,32.5,23.2,30.14,NW,315,4.0,11.0,68,0.00,,,0.00,meteohub,2012-11-03 05:06:00,
2012-11-03 01:07:00,32.5,23.2,30.13,West,270,11.0,11.0,68,0.00,,,0.00,meteohub,2012-11-03 05:07:00,
2012-11-03 01:09:00,32.5,23.2,30.14,NW,315,4.0,11.0,68,0.00,,,0.00,meteohub,2012-11-03 05:09:00,
2012-11-03 01:12:00,32.5,23.5,30.14,WNW,293,8.0,11.0,69,0.00,,,0.00,meteohub,2012-11-03 05:12:00,
2012-11-03 01:13:00,32.5,23.5,30.13,NW,315,8.0,11.0,69,0.00,,,0.00,meteohub,2012-11-03 05:13:00,
2012-11-03 01:15:00,32.5,23.5,30.14,North,0,2.0,11.0,69,0.00,,,0.00,meteohub,2012-11-03 05:15:00,
2012-11-03 01:17:00,32.5,23.2,30.14,East,90,10.0,11.0,68,0.00,,,0.00,meteohub,2012-11-03 05:17:00,
2012-11-03 01:18:00,32.5,23.5,30.14,WSW,248,4.0,11.0,69,0.00,,,0.00,meteohub,2012-11-03 05:18:00,
2012-11-03 01:20:00,32.4,23.4,30.14,West,270,5.0,11.0,69,0.00,,,0.00,meteohub,2012-11-03 05:20:00,
2012-11-03 01:23:00,32.4,23.4,30.14,WSW,248,3.0,11.0,69,0.00,,,0.00,meteohub,2012-11-03 05:23:00,
2012-11-03 01:24:00,32.4,23.4,30.14,NE,45,0.0,11.0,69,0.00,,,0.00,meteohub,2012-11-03 05:24:00,
2012-11-03 01:29:00,32.4,23.4,30.14,West,270,6.0,10.0,69,0.00,,,0.00,meteohub,2012-11-03 05:29:00,
2012-11-03 01:30:00,32.4,23.4,30.14,South,180,5.0,14.0,69,0.00,,,0.00,meteohub,2012-11-03 05:30:00,
2012-11-03 01:34:00,32.4,23.7,30.14,NW,315,11.0,14.0,70,0.00,,,0.00,meteohub,2012-11-03 05:34:00,
2012-11-03 01:35:00,32.4,23.7,30.14,West,270,9.0,14.0,70,0.00,,,0.00,meteohub,2012-11-03 05:35:00,
2012-11-03 01:36:00,32.4,23.7,30.14,NW,315,6.0,14.0,70,0.00,,,0.00,meteohub,2012-11-03 05:36:00,
2012-11-03 01:39:00,32.2,23.5,30.14,WSW,248,4.0,14.0,70,0.00,,,0.00,meteohub,2012-11-03 05:39:00,
2012-11-03 01:41:00,32.2,23.5,30.14,NW,315,0.0,14.0,70,0.00,,,0.00,meteohub,2012-11-03 05:41:00,
2012-11-03 01:42:00,32.2,23.5,30.14,NW,315,4.0,14.0,70,0.00,,,0.00,meteohub,2012-11-03 05:42:00,
2012-11-03 01:44:00,32.2,23.5,30.14,NW,315,8.0,14.0,70,0.00,,,0.00,meteohub,2012-11-03 05:44:00,
2012-11-03 01:45:00,32.2,23.5,30.14,NW,315,8.0,14.0,70,0.00,,,0.00,meteohub,2012-11-03 05:45:00,
2012-11-03 01:46:00,32.2,23.5,30.14,NW,315,8.0,11.0,70,0.00,,,0.00,meteohub,2012-11-03 05:46:00,
2012-11-03 01:48:00,32.2,23.5,30.14,WSW,248,3.0,11.0,70,0.00,,,0.00,meteohub,2012-11-03 05:48:00,
2012-11-03 01:50:00,32.2,23.5,30.14,NW,315,8.0,11.0,70,0.00,,,0.00,meteohub,2012-11-03 05:50:00,
2012-11-03 01:51:00,32.2,23.5,30.14,West,270,4.0,11.0,70,0.00,,,0.00,meteohub,2012-11-03 05:51:00,
2012-11-03 01:55:00,32.2,23.5,30.14,NW,315,5.0,11.0,70,0.00,,,0.00,meteohub,2012-11-03 05:55:00,
2012-11-03 01:56:00,32.2,23.5,30.14,WSW,248,9.0,11.0,70,0.00,,,0.00,meteohub,2012-11-03 05:56:00,
2012-11-03 02:00:00,32.2,23.5,30.14,NW,315,3.0,11.0,70,0.00,,,0.00,meteohub,2012-11-03 06:00:00,
2012-11-03 02:01:00,32.2,23.5,30.14,NW,315,3.0,11.0,70,0.00,,,0.00,meteohub,2012-11-03 06:01:00,
2012-11-03 02:02:00,32.2,23.5,30.14,NW,315,3.0,11.0,70,0.00,,,0.00,meteohub,2012-11-03 06:02:00,
2012-11-03 02:06:00,32.2,23.9,30.14,NW,315,7.0,10.0,71,0.00,,,0.00,meteohub,2012-11-03 06:06:00,
2012-11-03 02:07:00,32.2,23.9,30.14,NW,315,7.0,10.0,71,0.00,,,0.00,meteohub,2012-11-03 06:07:00,
2012-11-03 02:11:00,32.2,23.5,30.14,NW,315,4.0,10.0,70,0.00,,,0.00,meteohub,2012-11-03 06:11:00,
2012-11-03 02:12:00,32.2,23.5,30.14,NW,315,4.0,10.0,70,0.00,,,0.00,meteohub,2012-11-03 06:12:00,
2012-11-03 02:13:00,32.2,23.5,30.14,NW,315,8.0,10.0,70,0.00,,,0.00,meteohub,2012-11-03 06:13:00,
2012-11-03 02:16:00,32.2,23.5,30.14,NW,315,4.0,8.0,70,0.00,,,0.00,meteohub,2012-11-03 06:16:00,
2012-11-03 02:17:00,32.2,23.9,30.14,West,270,3.0,8.0,71,0.00,,,0.00,meteohub,2012-11-03 06:17:00,
2012-11-03 02:18:00,32.2,23.9,30.14,West,270,3.0,8.0,71,0.00,,,0.00,meteohub,2012-11-03 06:18:00,
2012-11-03 02:21:00,32.2,23.5,30.14,West,270,4.0,10.0,70,0.00,,,0.00,meteohub,2012-11-03 06:21:00,
2012-11-03 02:23:00,32.2,23.5,30.14,NW,315,10.0,10.0,70,0.00,,,0.00,meteohub,2012-11-03 06:23:00,
2012-11-03 02:26:00,32.2,23.5,30.14,WSW,248,4.0,11.0,70,0.00,,,0.00,meteohub,2012-11-03 06:26:00,
2012-11-03 02:28:00,32.2,23.5,30.14,NW,315,8.0,11.0,70,0.00,,,0.00,meteohub,2012-11-03 06:28:00,
2012-11-03 02:29:00,32.2,23.5,30.14,NW,315,8.0,11.0,70,0.00,,,0.00,meteohub,2012-11-03 06:29:00,
2012-11-03 02:33:00,32.2,23.5,30.14,West,270,7.0,11.0,70,0.00,,,0.00,meteohub,2012-11-03 06:33:00,
2012-11-03 02:34:00,32.2,23.2,30.14,WSW,248,8.0,11.0,69,0.00,,,0.00,meteohub,2012-11-03 06:34:00,
2012-11-03 02:35:00,32.2,23.2,30.14,NW,315,9.0,11.0,69,0.00,,,0.00,meteohub,2012-11-03 06:35:00,
2012-11-03 02:38:00,32.2,23.2,30.14,West,270,5.0,11.0,69,0.00,,,0.00,meteohub,2012-11-03 06:38:00,
2012-11-03 02:40:00,32.2,23.2,30.14,NW,315,4.0,11.0,69,0.00,,,0.00,meteohub,2012-11-03 06:40:00,
2012-11-03 02:43:00,32.2,23.2,30.14,NW,315,5.0,11.0,69,0.00,,,0.00,meteohub,2012-11-03 06:43:00,
2012-11-03 02:45:00,32.2,23.2,30.14,West,270,9.0,11.0,69,0.00,,,0.00,meteohub,2012-11-03 06:45:00,
2012-11-03 02:46:00,32.2,23.2,30.14,West,270,9.0,11.0,69,0.00,,,0.00,meteohub,2012-11-03 06:46:00,
2012-11-03 02:49:00,32.2,23.2,30.14,West,270,6.0,11.0,69,0.00,,,0.00,meteohub,2012-11-03 06:49:00,
2012-11-03 02:50:00,32.2,23.2,30.14,West,270,4.0,11.0,69,0.00,,,0.00,meteohub,2012-11-03 06:50:00,
2012-11-03 02:51:00,32.2,23.2,30.14,NW,315,1.0,11.0,69,0.00,,,0.00,meteohub,2012-11-03 06:51:00,
2012-11-03 02:52:00,32.2,23.2,30.14,NW,315,1.0,11.0,69,0.00,,,0.00,meteohub,2012-11-03 06:52:00,
2012-11-03 02:54:00,32.2,23.2,30.14,North,0,4.0,11.0,69,0.00,,,0.00,meteohub,2012-11-03 06:54:00,
2012-11-03 02:56:00,32.2,22.8,30.14,NW,315,8.0,11.0,68,0.00,,,0.00,meteohub,2012-11-03 06:56:00,
2012-11-03 02:57:00,32.2,22.8,30.14,NW,315,8.0,11.0,68,0.00,,,0.00,meteohub,2012-11-03 06:57:00,
2012-11-03 02:59:00,32.2,22.8,30.14,West,270,4.0,11.0,68,0.00,,,0.00,meteohub,2012-11-03 06:59:00,
2012-11-03 03:02:00,32.2,22.8,30.14,NW,315,12.0,12.0,68,0.00,,,0.00,meteohub,2012-11-03 07:02:00,
2012-11-03 03:03:00,32.2,22.8,30.14,North,0,8.0,10.0,68,0.00,,,0.00,meteohub,2012-11-03 07:03:00,
2012-11-03 03:04:00,32.2,22.8,30.14,WSW,248,4.0,10.0,68,0.00,,,0.00,meteohub,2012-11-03 07:04:00,
2012-11-03 03:08:00,32.2,22.8,30.14,West,270,10.0,12.0,68,0.00,,,0.00,meteohub,2012-11-03 07:08:00,
2012-11-03 03:09:00,32.2,22.8,30.14,West,270,8.0,12.0,68,0.00,,,0.00,meteohub,2012-11-03 07:09:00,
2012-11-03 03:11:00,32.2,22.8,30.15,West,270,2.0,12.0,68,0.00,,,0.00,meteohub,2012-11-03 07:11:00,
2012-11-03 03:13:00,32.0,22.6,30.14,NW,315,9.0,12.0,68,0.00,,,0.00,meteohub,2012-11-03 07:13:00,
2012-11-03 03:15:00,32.0,22.6,30.15,SE,135,4.0,12.0,68,0.00,,,0.00,meteohub,2012-11-03 07:15:00,
2012-11-03 03:16:00,32.0,22.6,30.14,West,270,4.0,12.0,68,0.00,,,0.00,meteohub,2012-11-03 07:16:00,
2012-11-03 03:18:00,32.0,22.6,30.15,West,270,7.0,12.0,68,0.00,,,0.00,meteohub,2012-11-03 07:18:00,
2012-11-03 03:19:00,32.0,22.6,30.15,West,270,7.0,12.0,68,0.00,,,0.00,meteohub,2012-11-03 07:19:00,
2012-11-03 03:20:00,32.0,22.6,30.14,WSW,248,11.0,11.0,68,0.00,,,0.00,meteohub,2012-11-03 07:20:00,
2012-11-03 03:21:00,32.0,22.6,30.14,North,0,9.0,11.0,68,0.00,,,0.00,meteohub,2012-11-03 07:21:00,
2012-11-03 03:24:00,32.0,23.0,30.14,West,270,11.0,11.0,69,0.00,,,0.00,meteohub,2012-11-03 07:24:00,
2012-11-03 03:25:00,32.0,23.0,30.15,NW,315,8.0,11.0,69,0.00,,,0.00,meteohub,2012-11-03 07:25:00,
2012-11-03 03:26:00,31.8,22.8,30.14,NW,315,3.0,11.0,69,0.00,,,0.00,meteohub,2012-11-03 07:26:00,
2012-11-03 03:29:00,31.8,22.8,30.14,WSW,248,8.0,11.0,69,0.00,,,0.00,meteohub,2012-11-03 07:29:00,
2012-11-03 03:30:00,31.8,23.2,30.14,West,270,7.0,11.0,70,0.00,,,0.00,meteohub,2012-11-03 07:30:00,
2012-11-03 03:31:00,31.8,23.2,30.14,West,270,7.0,11.0,70,0.00,,,0.00,meteohub,2012-11-03 07:31:00,
2012-11-03 03:32:00,31.8,23.2,30.14,North,0,8.0,11.0,70,0.00,,,0.00,meteohub,2012-11-03 07:32:00,
2012-11-03 03:35:00,31.8,23.2,30.14,WSW,248,3.0,11.0,70,0.00,,,0.00,meteohub,2012-11-03 07:35:00,
2012-11-03 03:36:00,31.8,23.2,30.15,West,270,4.0,15.0,70,0.00,,,0.00,meteohub,2012-11-03 07:36:00,
2012-11-03 03:37:00,31.8,23.2,30.15,North,0,4.0,15.0,70,0.00,,,0.00,meteohub,2012-11-03 07:37:00,
2012-11-03 03:40:00,31.8,23.5,30.14,WSW,248,2.0,15.0,71,0.00,,,0.00,meteohub,2012-11-03 07:40:00,
2012-11-03 03:41:00,31.8,23.5,30.14,NW,315,6.0,15.0,71,0.00,,,0.00,meteohub,2012-11-03 07:41:00,
2012-11-03 03:42:00,31.8,23.5,30.14,NW,315,7.0,15.0,71,0.00,,,0.00,meteohub,2012-11-03 07:42:00,
2012-11-03 03:46:00,31.8,23.5,30.14,NW,315,0.0,12.0,71,0.00,,,0.00,meteohub,2012-11-03 07:46:00,
2012-11-03 03:47:00,31.6,23.4,30.15,NW,315,5.0,12.0,71,0.00,,,0.00,meteohub,2012-11-03 07:47:00,
2012-11-03 03:51:00,31.6,23.7,30.14,West,270,4.0,11.0,72,0.00,,,0.00,meteohub,2012-11-03 07:51:00,
2012-11-03 03:53:00,31.6,23.7,30.14,NW,315,8.0,11.0,72,0.00,,,0.00,meteohub,2012-11-03 07:53:00,
2012-11-03 03:56:00,31.6,23.7,30.15,NW,315,4.0,8.0,72,0.00,,,0.00,meteohub,2012-11-03 07:56:00,
2012-11-03 03:58:00,31.6,23.7,30.14,WSW,248,8.0,8.0,72,0.00,,,0.00,meteohub,2012-11-03 07:58:00,
2012-11-03 03:59:00,31.6,23.7,30.14,NW,315,3.0,8.0,72,0.00,,,0.00,meteohub,2012-11-03 07:59:00,
2012-11-03 04:01:00,31.6,23.7,30.15,South,180,7.0,10.0,72,0.00,,,0.00,meteohub,2012-11-03 08:01:00,
2012-11-03 04:04:00,31.6,23.9,30.15,NW,315,7.0,10.0,73,0.00,,,0.00,meteohub,2012-11-03 08:04:00,
2012-11-03 04:05:00,31.6,23.9,30.14,WSW,248,14.0,14.0,73,0.00,,,0.00,meteohub,2012-11-03 08:05:00,
2012-11-03 04:08:00,31.6,23.9,30.15,NW,315,3.0,14.0,73,0.00,,,0.00,meteohub,2012-11-03 08:08:00,
2012-11-03 04:09:00,31.6,23.9,30.15,NW,315,12.0,14.0,73,0.00,,,0.00,meteohub,2012-11-03 08:09:00,
2012-11-03 04:10:00,31.6,23.9,30.14,North,0,10.0,14.0,73,0.00,,,0.00,meteohub,2012-11-03 08:10:00,
2012-11-03 04:11:00,31.6,24.3,30.15,West,270,8.0,14.0,74,0.00,,,0.00,meteohub,2012-11-03 08:11:00,
2012-11-03 04:14:00,31.6,24.3,30.14,NW,315,3.0,14.0,74,0.00,,,0.00,meteohub,2012-11-03 08:14:00,
2012-11-03 04:15:00,31.6,24.3,30.14,West,270,7.0,14.0,74,0.00,,,0.00,meteohub,2012-11-03 08:15:00,
2012-11-03 04:16:00,31.6,24.3,30.15,North,0,7.0,14.0,74,0.00,,,0.00,meteohub,2012-11-03 08:16:00,
2012-11-03 04:17:00,31.6,24.3,30.15,North,0,7.0,14.0,74,0.00,,,0.00,meteohub,2012-11-03 08:17:00,
2012-11-03 04:20:00,31.6,24.3,30.14,West,270,8.0,12.0,74,0.00,,,0.00,meteohub,2012-11-03 08:20:00,
2012-11-03 04:21:00,31.6,24.3,30.14,North,0,5.0,12.0,74,0.00,,,0.00,meteohub,2012-11-03 08:21:00,
2012-11-03 04:22:00,31.6,24.3,30.14,North,0,5.0,12.0,74,0.00,,,0.00,meteohub,2012-11-03 08:22:00,
2012-11-03 04:25:00,31.6,24.3,30.14,WSW,248,12.0,12.0,74,0.00,,,0.00,meteohub,2012-11-03 08:25:00,
2012-11-03 04:26:00,31.6,24.3,30.14,NW,315,5.0,11.0,74,0.00,,,0.00,meteohub,2012-11-03 08:26:00,
2012-11-03 04:27:00,31.6,24.3,30.14,East,90,3.0,11.0,74,0.00,,,0.00,meteohub,2012-11-03 08:27:00,
2012-11-03 04:30:00,31.8,24.4,30.14,NW,315,6.0,12.0,74,0.00,,,0.00,meteohub,2012-11-03 08:30:00,
2012-11-03 04:32:00,31.8,24.8,30.14,West,270,9.0,12.0,75,0.00,,,0.00,meteohub,2012-11-03 08:32:00,
2012-11-03 04:33:00,31.8,24.8,30.14,West,270,3.0,12.0,75,0.00,,,0.00,meteohub,2012-11-03 08:33:00,
2012-11-03 04:36:00,31.6,24.6,30.15,West,270,8.0,12.0,75,0.00,,,0.00,meteohub,2012-11-03 08:36:00,
2012-11-03 04:37:00,31.6,24.6,30.15,WSW,248,3.0,12.0,75,0.00,,,0.00,meteohub,2012-11-03 08:37:00,
2012-11-03 04:38:00,31.8,24.8,30.15,West,270,4.0,12.0,75,0.00,,,0.00,meteohub,2012-11-03 08:38:00,
2012-11-03 04:41:00,31.8,24.8,30.14,NE,45,4.0,12.0,75,0.00,,,0.00,meteohub,2012-11-03 08:41:00,
2012-11-03 04:42:00,31.8,24.8,30.14,West,270,10.0,12.0,75,0.00,,,0.00,meteohub,2012-11-03 08:42:00,
2012-11-03 04:43:00,31.8,24.8,30.14,West,270,10.0,12.0,75,0.00,,,0.00,meteohub,2012-11-03 08:43:00,
2012-11-03 04:44:00,31.8,24.8,30.14,West,270,8.0,12.0,75,0.00,,,0.00,meteohub,2012-11-03 08:44:00,
2012-11-03 04:46:00,31.8,24.8,30.14,West,270,2.0,11.0,75,0.00,,,0.00,meteohub,2012-11-03 08:46:00,
2012-11-03 04:48:00,32.0,25.0,30.14,NW,315,5.0,11.0,75,0.00,,,0.00,meteohub,2012-11-03 08:48:00,
2012-11-03 04:49:00,32.0,25.0,30.15,West,270,1.0,11.0,75,0.00,,,0.00,meteohub,2012-11-03 08:49:00,
2012-11-03 04:53:00,32.0,24.6,30.15,West,270,3.0,11.0,74,0.00,,,0.00,meteohub,2012-11-03 08:53:00,
2012-11-03 04:54:00,32.0,24.6,30.15,NW,315,10.0,11.0,74,0.00,,,0.00,meteohub,2012-11-03 08:54:00,
2012-11-03 04:55:00,32.0,24.6,30.15,West,270,8.0,10.0,74,0.00,,,0.00,meteohub,2012-11-03 08:55:00,
2012-11-03 04:59:00,32.0,24.6,30.15,South,180,4.0,10.0,74,0.00,,,0.00,meteohub,2012-11-03 08:59:00,
2012-11-03 05:00:00,32.0,24.6,30.15,NW,315,2.0,10.0,74,0.00,,,0.00,meteohub,2012-11-03 09:00:00,
2012-11-03 05:04:00,32.0,24.6,30.15,West,270,3.0,10.0,74,0.00,,,0.00,meteohub,2012-11-03 09:04:00,
2012-11-03 05:05:00,32.0,24.6,30.15,West,270,3.0,10.0,74,0.00,,,0.00,meteohub,2012-11-03 09:05:00,
2012-11-03 05:10:00,32.0,24.3,30.16,WSW,248,3.0,8.0,73,0.00,,,0.00,meteohub,2012-11-03 09:10:00,
2012-11-03 05:11:00,32.0,24.3,30.16,WSW,248,3.0,8.0,73,0.00,,,0.00,meteohub,2012-11-03 09:11:00,
2012-11-03 05:16:00,32.0,24.3,30.15,North,0,4.0,7.0,73,0.00,,,0.00,meteohub,2012-11-03 09:16:00,
2012-11-03 05:21:00,32.2,24.4,30.16,NW,315,8.0,8.0,73,0.00,,,0.00,meteohub,2012-11-03 09:21:00,
2012-11-03 05:22:00,32.2,24.4,30.16,West,270,9.0,9.0,73,0.00,,,0.00,meteohub,2012-11-03 09:22:00,
2012-11-03 05:26:00,32.2,24.4,30.16,WNW,293,11.0,11.0,73,0.00,,,0.00,meteohub,2012-11-03 09:26:00,
2012-11-03 05:28:00,32.2,24.3,30.16,West,270,4.0,11.0,72,0.00,,,0.00,meteohub,2012-11-03 09:28:00,
2012-11-03 05:31:00,32.2,24.3,30.16,NW,315,2.0,11.0,72,0.00,,,0.00,meteohub,2012-11-03 09:31:00,
2012-11-03 05:32:00,32.2,24.3,30.16,West,270,5.0,11.0,72,0.00,,,0.00,meteohub,2012-11-03 09:32:00,
2012-11-03 05:33:00,32.2,24.3,30.16,NW,315,10.0,11.0,72,0.00,,,0.00,meteohub,2012-11-03 09:33:00,
2012-11-03 05:36:00,32.2,24.3,30.16,NW,315,7.0,11.0,72,0.00,,,0.00,meteohub,2012-11-03 09:36:00,
2012-11-03 05:37:00,32.2,24.3,30.16,West,270,2.0,11.0,72,0.00,,,0.00,meteohub,2012-11-03 09:37:00,
2012-11-03 05:38:00,32.2,24.3,30.16,NW,315,7.0,11.0,72,0.00,,,0.00,meteohub,2012-11-03 09:38:00,
2012-11-03 05:42:00,32.2,24.3,30.16,West,270,4.0,11.0,72,0.00,,,0.00,meteohub,2012-11-03 09:42:00,
2012-11-03 05:43:00,32.2,24.3,30.16,NW,315,0.0,11.0,72,0.00,,,0.00,meteohub,2012-11-03 09:43:00,
2012-11-03 05:44:00,32.2,24.3,30.16,West,270,8.0,11.0,72,0.00,,,0.00,meteohub,2012-11-03 09:44:00,
2012-11-03 05:47:00,32.2,23.9,30.17,NW,315,4.0,10.0,71,0.00,,,0.00,meteohub,2012-11-03 09:47:00,
2012-11-03 05:49:00,32.2,23.9,30.17,WSW,248,10.0,10.0,71,0.00,,,0.00,meteohub,2012-11-03 09:49:00,
2012-11-03 05:50:00,32.2,23.9,30.17,WSW,248,4.0,11.0,71,0.00,,,0.00,meteohub,2012-11-03 09:50:00,
2012-11-03 05:53:00,32.2,23.9,30.17,WSW,248,10.0,11.0,71,0.00,,,0.00,meteohub,2012-11-03 09:53:00,
2012-11-03 05:54:00,32.2,23.9,30.17,West,270,8.0,11.0,71,0.00,,,0.00,meteohub,2012-11-03 09:54:00,
2012-11-03 05:55:00,32.2,23.9,30.17,West,270,3.0,11.0,71,0.00,,,0.00,meteohub,2012-11-03 09:55:00,
2012-11-03 05:57:00,32.2,23.9,30.17,West,270,7.0,11.0,71,0.00,,,0.00,meteohub,2012-11-03 09:57:00,
2012-11-03 05:58:00,32.2,23.9,30.17,NW,315,9.0,11.0,71,0.00,,,0.00,meteohub,2012-11-03 09:58:00,
2012-11-03 06:00:00,32.2,23.9,30.17,NW,315,1.0,11.0,71,0.00,,,0.00,meteohub,2012-11-03 10:00:00,
2012-11-03 06:02:00,32.2,23.9,30.17,North,0,7.0,11.0,71,0.00,,,0.00,meteohub,2012-11-03 10:02:00,
2012-11-03 06:03:00,32.2,23.9,30.17,NE,45,8.0,11.0,71,0.00,,,0.00,meteohub,2012-11-03 10:03:00,
2012-11-03 06:05:00,32.2,23.9,30.17,North,0,4.0,10.0,71,0.00,,,0.00,meteohub,2012-11-03 10:05:00,
2012-11-03 06:09:00,32.2,23.9,30.17,West,270,7.0,10.0,71,0.00,,,0.00,meteohub,2012-11-03 10:09:00,
2012-11-03 06:10:00,32.2,23.9,30.17,NW,315,10.0,10.0,71,0.00,,,0.00,meteohub,2012-11-03 10:10:00,
2012-11-03 06:11:00,32.2,23.9,30.17,West,270,4.0,9.0,71,0.00,,,0.00,meteohub,2012-11-03 10:11:00,
2012-11-03 06:14:00,32.2,23.9,30.17,NW,315,8.0,9.0,71,0.00,,,0.00,meteohub,2012-11-03 10:14:00,
2012-11-03 06:15:00,32.2,23.9,30.17,NW,315,8.0,10.0,71,0.00,,,0.00,meteohub,2012-11-03 10:15:00,
2012-11-03 06:16:00,32.2,23.9,30.17,NW,315,8.0,10.0,71,0.00,,,0.00,meteohub,2012-11-03 10:16:00,
2012-11-03 06:20:00,32.2,23.9,30.17,West,270,3.0,10.0,71,0.00,,,0.00,meteohub,2012-11-03 10:20:00,
2012-11-03 06:21:00,32.2,23.9,30.17,NW,315,7.0,10.0,71,0.00,,,0.00,meteohub,2012-11-03 10:21:00,
2012-11-03 06:22:00,32.2,23.9,30.17,West,270,11.0,11.0,71,0.00,,,0.00,meteohub,2012-11-03 10:22:00,
2012-11-03 06:25:00,32.2,23.9,30.17,NW,315,4.0,11.0,71,0.00,,,0.00,meteohub,2012-11-03 10:25:00,
2012-11-03 06:26:00,32.2,23.9,30.17,West,270,6.0,11.0,71,0.00,,,0.00,meteohub,2012-11-03 10:26:00,
2012-11-03 06:27:00,32.2,23.9,30.17,NW,315,1.0,11.0,71,0.00,,,0.00,meteohub,2012-11-03 10:27:00,
2012-11-03 06:31:00,32.2,23.9,30.18,North,0,4.0,11.0,71,0.00,,,0.00,meteohub,2012-11-03 10:31:00,
2012-11-03 06:32:00,32.2,23.9,30.18,NW,315,0.0,11.0,71,0.00,,,0.00,meteohub,2012-11-03 10:32:00,
2012-11-03 06:37:00,32.2,23.9,30.18,NW,315,8.0,11.0,71,0.00,,,0.00,meteohub,2012-11-03 10:37:00,
2012-11-03 06:38:00,32.2,23.9,30.18,NW,315,8.0,11.0,71,0.00,,,0.00,meteohub,2012-11-03 10:38:00,
2012-11-03 06:42:00,32.2,23.9,30.18,West,270,7.0,9.0,71,0.00,,,0.00,meteohub,2012-11-03 10:42:00,
2012-11-03 06:43:00,32.2,23.9,30.18,NW,315,6.0,9.0,71,0.00,,,0.00,meteohub,2012-11-03 10:43:00,
2012-11-03 06:44:00,32.2,23.9,30.19,NW,315,3.0,9.0,71,0.00,,,0.00,meteohub,2012-11-03 10:44:00,
2012-11-03 06:47:00,32.2,23.9,30.18,North,0,12.0,12.0,71,0.00,,,0.00,meteohub,2012-11-03 10:47:00,
2012-11-03 06:48:00,32.4,24.1,30.18,West,270,8.0,8.0,71,0.00,,,0.00,meteohub,2012-11-03 10:48:00,
2012-11-03 06:49:00,32.4,24.1,30.19,West,270,1.0,8.0,71,0.00,,,0.00,meteohub,2012-11-03 10:49:00,
2012-11-03 06:52:00,32.4,24.1,30.18,NW,315,6.0,12.0,71,0.00,,,0.00,meteohub,2012-11-03 10:52:00,
2012-11-03 06:53:00,32.4,24.1,30.19,NW,315,8.0,12.0,71,0.00,,,0.00,meteohub,2012-11-03 10:53:00,
2012-11-03 06:55:00,32.4,24.1,30.18,West,270,9.0,12.0,71,0.00,,,0.00,meteohub,2012-11-03 10:55:00,
2012-11-03 06:57:00,32.4,24.1,30.19,West,270,9.0,12.0,71,0.00,,,0.00,meteohub,2012-11-03 10:57:00,
2012-11-03 06:59:00,32.4,24.1,30.19,NE,45,8.0,12.0,71,0.00,,,0.00,meteohub,2012-11-03 10:59:00,
2012-11-03 07:01:00,32.4,24.1,30.19,NE,45,5.0,14.0,71,0.00,,,0.00,meteohub,2012-11-03 11:01:00,
2012-11-03 07:03:00,32.4,24.1,30.19,West,270,9.0,14.0,71,0.00,,,0.00,meteohub,2012-11-03 11:03:00,
2012-11-03 07:04:00,32.4,24.1,30.19,West,270,10.0,14.0,71,0.00,,,0.00,meteohub,2012-11-03 11:04:00,
2012-11-03 07:07:00,32.4,23.7,30.19,NW,315,11.0,14.0,70,0.00,,,0.00,meteohub,2012-11-03 11:07:00,
2012-11-03 07:08:00,32.4,23.7,30.19,West,270,8.0,14.0,70,0.00,,,0.00,meteohub,2012-11-03 11:08:00,
2012-11-03 07:10:00,32.4,23.7,30.19,North,0,8.0,14.0,70,0.00,,,0.00,meteohub,2012-11-03 11:10:00,
2012-11-03 07:12:00,32.4,23.7,30.19,NW,315,8.0,14.0,70,0.00,,,0.00,meteohub,2012-11-03 11:12:00,
2012-11-03 07:13:00,32.4,23.7,30.19,NW,315,7.0,14.0,70,0.00,,,0.00,meteohub,2012-11-03 11:13:00,
2012-11-03 07:15:00,32.4,23.7,30.19,NW,315,8.0,11.0,70,0.00,,,0.00,meteohub,2012-11-03 11:15:00,
2012-11-03 07:17:00,32.4,23.7,30.19,NW,315,8.0,11.0,70,0.00,,,0.00,meteohub,2012-11-03 11:17:00,
2012-11-03 07:18:00,32.4,23.7,30.19,NW,315,8.0,11.0,70,0.00,,,0.00,meteohub,2012-11-03 11:18:00,
2012-11-03 07:19:00,32.4,23.7,30.19,NW,315,5.0,11.0,70,0.00,,,0.00,meteohub,2012-11-03 11:19:00,
2012-11-03 07:21:00,32.4,23.7,30.19,NW,315,10.0,11.0,70,0.00,,,0.00,meteohub,2012-11-03 11:21:00,
2012-11-03 07:22:00,32.4,23.7,30.19,WSW,248,3.0,11.0,70,0.00,,,0.00,meteohub,2012-11-03 11:22:00,
2012-11-03 07:23:00,32.4,23.7,30.19,North,0,6.0,11.0,70,0.00,,,0.00,meteohub,2012-11-03 11:23:00,
2012-11-03 07:25:00,32.4,23.7,30.19,NW,315,2.0,11.0,70,0.00,,,0.00,meteohub,2012-11-03 11:25:00,
2012-11-03 07:26:00,32.4,23.7,30.19,NW,315,12.0,12.0,70,0.00,,,0.00,meteohub,2012-11-03 11:26:00,
2012-11-03 07:28:00,32.4,24.1,30.19,WSW,248,12.0,12.0,71,0.00,,,0.00,meteohub,2012-11-03 11:28:00,
2012-11-03 07:29:00,32.2,23.5,30.20,West,270,7.0,11.0,70,0.00,,,0.00,meteohub,2012-11-03 11:29:00,
2012-11-03 07:31:00,32.2,23.9,30.19,NW,315,11.0,12.0,71,0.00,,,0.00,meteohub,2012-11-03 11:31:00,
2012-11-03 07:33:00,32.2,23.9,30.19,NW,315,8.0,12.0,71,0.00,,,0.00,meteohub,2012-11-03 11:33:00,
2012-11-03 07:34:00,32.2,23.9,30.19,NW,315,7.0,12.0,71,0.00,,,0.00,meteohub,2012-11-03 11:34:00,
2012-11-03 07:36:00,32.2,23.9,30.19,South,180,6.0,12.0,71,0.00,,,0.00,meteohub,2012-11-03 11:36:00,
2012-11-03 07:38:00,32.2,23.9,30.20,West,270,8.0,12.0,71,0.00,,,0.00,meteohub,2012-11-03 11:38:00,
2012-11-03 07:39:00,32.2,23.9,30.20,NW,315,4.0,12.0,71,0.00,,,0.00,meteohub,2012-11-03 11:39:00,
2012-11-03 07:41:00,32.2,23.9,30.19,NW,315,3.0,12.0,71,0.00,,,0.00,meteohub,2012-11-03 11:41:00,
2012-11-03 07:43:00,32.2,23.9,30.19,West,270,8.0,12.0,71,0.00,,,0.00,meteohub,2012-11-03 11:43:00,
2012-11-03 07:44:00,32.0,24.1,30.20,West,270,7.0,12.0,72,0.00,,,0.00,meteohub,2012-11-03 11:44:00,
2012-11-03 07:46:00,32.0,24.1,30.20,West,270,6.0,11.0,72,0.00,,,0.00,meteohub,2012-11-03 11:46:00,
2012-11-03 07:49:00,32.0,24.1,30.20,WSW,248,5.0,11.0,72,0.00,,,0.00,meteohub,2012-11-03 11:49:00,
2012-11-03 07:50:00,32.0,24.1,30.20,WSW,248,5.0,11.0,72,0.00,,,0.00,meteohub,2012-11-03 11:50:00,
2012-11-03 07:52:00,32.0,24.1,30.20,NW,315,2.0,11.0,72,0.00,,,0.00,meteohub,2012-11-03 11:52:00,
2012-11-03 07:54:00,32.0,24.1,30.20,West,270,0.0,11.0,72,0.00,,,0.00,meteohub,2012-11-03 11:54:00,
2012-11-03 07:55:00,32.0,24.1,30.20,West,270,0.0,11.0,72,0.00,,,0.00,meteohub,2012-11-03 11:55:00,
2012-11-03 07:57:00,32.0,24.3,30.20,NW,315,5.0,11.0,73,0.00,,,0.00,meteohub,2012-11-03 11:57:00,
2012-11-03 08:00:00,32.0,24.3,30.20,NW,315,2.0,8.0,73,0.00,,,0.00,meteohub,2012-11-03 12:00:00,
2012-11-03 08:02:00,32.0,24.3,30.21,West,270,12.0,12.0,73,0.00,,,0.00,meteohub,2012-11-03 12:02:00,
2012-11-03 08:03:00,32.0,24.3,30.20,NW,315,8.0,8.0,73,0.00,,,0.00,meteohub,2012-11-03 12:03:00,
2012-11-03 08:05:00,32.0,24.3,30.21,NW,315,4.0,12.0,73,0.00,,,0.00,meteohub,2012-11-03 12:05:00,
2012-11-03 08:07:00,32.0,24.3,30.21,West,270,11.0,12.0,73,0.00,,,0.00,meteohub,2012-11-03 12:07:00,
2012-11-03 08:08:00,32.0,24.3,30.21,NW,315,6.0,12.0,73,0.00,,,0.00,meteohub,2012-11-03 12:08:00,
2012-11-03 08:11:00,32.0,24.6,30.21,West,270,9.0,12.0,74,0.00,,,0.00,meteohub,2012-11-03 12:11:00,
2012-11-03 08:12:00,32.0,24.6,30.21,NW,315,3.0,12.0,74,0.00,,,0.00,meteohub,2012-11-03 12:12:00,
2012-11-03 08:13:00,32.0,24.6,30.21,NW,315,3.0,12.0,74,0.00,,,0.00,meteohub,2012-11-03 12:13:00,
2012-11-03 08:14:00,32.0,24.6,30.21,West,270,4.0,12.0,74,0.00,,,0.00,meteohub,2012-11-03 12:14:00,
2012-11-03 08:16:00,32.0,24.6,30.21,West,270,9.0,12.0,74,0.00,,,0.00,meteohub,2012-11-03 12:16:00,
2012-11-03 08:18:00,32.0,24.6,30.21,NW,315,11.0,12.0,74,0.00,,,0.00,meteohub,2012-11-03 12:18:00,
2012-11-03 08:20:00,32.0,25.0,30.21,WSW,248,8.0,11.0,75,0.00,,,0.00,meteohub,2012-11-03 12:20:00,
2012-11-03 08:21:00,32.0,25.0,30.21,NE,45,3.0,11.0,75,0.00,,,0.00,meteohub,2012-11-03 12:21:00,
2012-11-03 08:23:00,32.0,25.0,30.22,West,270,3.0,11.0,75,0.00,,,0.00,meteohub,2012-11-03 12:23:00,
2012-11-03 08:25:00,32.0,25.0,30.21,West,270,2.0,11.0,75,0.00,,,0.00,meteohub,2012-11-03 12:25:00,
2012-11-03 08:26:00,32.0,25.0,30.21,West,270,8.0,11.0,75,0.00,,,0.00,meteohub,2012-11-03 12:26:00,
2012-11-03 08:27:00,32.0,25.0,30.22,NW,315,8.0,11.0,75,0.00,,,0.00,meteohub,2012-11-03 12:27:00,
2012-11-03 08:30:00,32.0,25.0,30.22,West,270,1.0,11.0,75,0.00,,,0.00,meteohub,2012-11-03 12:30:00,
2012-11-03 08:32:00,32.0,25.3,30.21,West,270,4.0,11.0,76,0.00,,,0.00,meteohub,2012-11-03 12:32:00,
2012-11-03 08:33:00,32.0,25.3,30.22,NW,315,5.0,11.0,76,0.00,,,0.00,meteohub,2012-11-03 12:33:00,
2012-11-03 08:35:00,32.0,25.3,30.22,NW,315,8.0,8.0,76,0.00,,,0.00,meteohub,2012-11-03 12:35:00,
2012-11-03 08:36:00,32.0,25.3,30.22,NW,315,10.0,10.0,76,0.00,,,0.00,meteohub,2012-11-03 12:36:00,
2012-11-03 08:37:00,32.0,25.3,30.22,NW,315,5.0,8.0,76,0.00,,,0.00,meteohub,2012-11-03 12:37:00,
2012-11-03 08:39:00,32.2,25.5,30.22,West,270,5.0,8.0,76,0.00,,,0.00,meteohub,2012-11-03 12:39:00,
2012-11-03 08:40:00,32.2,25.5,30.22,West,270,5.0,10.0,76,0.00,,,0.00,meteohub,2012-11-03 12:40:00,
2012-11-03 08:41:00,32.2,25.5,30.22,West,270,5.0,10.0,76,0.00,,,0.00,meteohub,2012-11-03 12:41:00,
2012-11-03 08:42:00,32.2,25.5,30.22,NW,315,4.0,10.0,76,0.00,,,0.00,meteohub,2012-11-03 12:42:00,
2012-11-03 08:45:00,32.2,25.7,30.22,North,0,4.0,10.0,77,0.00,,,0.00,meteohub,2012-11-03 12:45:00,
2012-11-03 08:46:00,32.2,25.7,30.22,West,270,1.0,10.0,77,0.00,,,0.00,meteohub,2012-11-03 12:46:00,
2012-11-03 08:47:00,32.2,25.7,30.22,NW,315,7.0,10.0,77,0.00,,,0.00,meteohub,2012-11-03 12:47:00,
2012-11-03 08:48:00,32.2,25.7,30.22,NW,315,7.0,10.0,77,0.00,,,0.00,meteohub,2012-11-03 12:48:00,
2012-11-03 08:50:00,32.4,25.9,30.22,West,270,8.0,10.0,77,0.00,,,0.00,meteohub,2012-11-03 12:50:00,
2012-11-03 08:52:00,32.4,25.9,30.22,West,270,6.0,10.0,77,0.00,,,0.00,meteohub,2012-11-03 12:52:00,
2012-11-03 08:53:00,32.4,25.9,30.22,West,270,6.0,10.0,77,0.00,,,0.00,meteohub,2012-11-03 12:53:00,
2012-11-03 08:54:00,32.4,25.9,30.22,West,270,8.0,10.0,77,0.00,,,0.00,meteohub,2012-11-03 12:54:00,
2012-11-03 08:55:00,32.4,25.9,30.22,West,270,11.0,11.0,77,0.00,,,0.00,meteohub,2012-11-03 12:55:00,
2012-11-03 08:58:00,32.4,25.9,30.22,NW,315,8.0,10.0,77,0.00,,,0.00,meteohub,2012-11-03 12:58:00,
2012-11-03 08:59:00,32.4,25.9,30.22,West,270,3.0,10.0,77,0.00,,,0.00,meteohub,2012-11-03 12:59:00,
2012-11-03 09:00:00,32.4,25.9,30.22,West,270,3.0,11.0,77,0.00,,,0.00,meteohub,2012-11-03 13:00:00,
2012-11-03 09:03:00,32.4,25.9,30.22,NW,315,4.0,11.0,77,0.00,,,0.00,meteohub,2012-11-03 13:03:00,
2012-11-03 09:04:00,32.4,25.9,30.22,NW,315,4.0,11.0,77,0.00,,,0.00,meteohub,2012-11-03 13:04:00,
2012-11-03 09:05:00,32.4,25.9,30.22,NW,315,7.0,11.0,77,0.00,,,0.00,meteohub,2012-11-03 13:05:00,
2012-11-03 09:09:00,32.4,25.9,30.22,WSW,248,4.0,11.0,77,0.00,,,0.00,meteohub,2012-11-03 13:09:00,
2012-11-03 09:10:00,32.4,25.9,30.22,WSW,248,4.0,11.0,77,0.00,,,0.00,meteohub,2012-11-03 13:10:00,
2012-11-03 09:11:00,32.4,26.2,30.22,North,0,0.0,11.0,78,0.00,,,0.00,meteohub,2012-11-03 13:11:00,
2012-11-03 09:15:00,32.4,26.2,30.22,NW,315,4.0,11.0,78,0.00,,,0.00,meteohub,2012-11-03 13:15:00,
2012-11-03 09:16:00,32.4,26.2,30.22,West,270,8.0,10.0,78,0.00,,,0.00,meteohub,2012-11-03 13:16:00,
2012-11-03 09:18:00,32.4,26.2,30.22,North,0,2.0,10.0,78,0.00,,,0.00,meteohub,2012-11-03 13:18:00,
2012-11-03 09:20:00,32.4,26.2,30.22,NW,315,0.0,9.0,78,0.00,,,0.00,meteohub,2012-11-03 13:20:00,
2012-11-03 09:22:00,32.4,26.2,30.23,NW,315,2.0,9.0,78,0.00,,,0.00,meteohub,2012-11-03 13:22:00,
2012-11-03 09:24:00,32.4,26.2,30.22,NW,315,0.0,9.0,78,0.00,,,0.00,meteohub,2012-11-03 13:24:00,
2012-11-03 09:26:00,32.4,26.2,30.23,NW,315,4.0,9.0,78,0.00,,,0.00,meteohub,2012-11-03 13:26:00,
2012-11-03 09:27:00,32.5,26.4,30.23,West,270,2.0,9.0,78,0.00,,,0.00,meteohub,2012-11-03 13:27:00,
2012-11-03 09:29:00,32.4,26.2,30.23,NW,315,2.0,9.0,78,0.00,,,0.00,meteohub,2012-11-03 13:29:00,
2012-11-03 09:32:00,32.4,26.2,30.22,South,180,11.0,11.0,78,0.00,,,0.00,meteohub,2012-11-03 13:32:00,
2012-11-03 09:33:00,32.4,26.2,30.22,NW,315,2.0,8.0,78,0.00,,,0.00,meteohub,2012-11-03 13:33:00,
2012-11-03 09:35:00,32.4,26.2,30.23,NW,315,1.0,11.0,78,0.00,,,0.00,meteohub,2012-11-03 13:35:00,
2012-11-03 09:38:00,32.4,26.2,30.22,NW,315,9.0,11.0,78,0.00,,,0.00,meteohub,2012-11-03 13:38:00,
2012-11-03 09:39:00,32.4,26.2,30.23,North,0,6.0,11.0,78,0.00,,,0.00,meteohub,2012-11-03 13:39:00,
2012-11-03 09:41:00,32.4,26.2,30.22,West,270,4.0,11.0,78,0.00,,,0.00,meteohub,2012-11-03 13:41:00,
2012-11-03 09:43:00,32.4,26.6,30.22,West,270,7.0,11.0,79,0.00,,,0.00,meteohub,2012-11-03 13:43:00,
2012-11-03 09:44:00,32.4,26.2,30.22,NW,315,2.0,11.0,78,0.00,,,0.00,meteohub,2012-11-03 13:44:00,
2012-11-03 09:46:00,32.5,26.8,30.23,WSW,248,7.0,11.0,79,0.00,,,0.00,meteohub,2012-11-03 13:46:00,
2012-11-03 09:48:00,32.5,26.8,30.22,West,270,2.0,11.0,79,0.00,,,0.00,meteohub,2012-11-03 13:48:00,
2012-11-03 09:49:00,32.5,26.8,30.22,West,270,8.0,11.0,79,0.00,,,0.00,meteohub,2012-11-03 13:49:00,
2012-11-03 09:50:00,32.5,26.8,30.22,WSW,248,2.0,9.0,79,0.00,,,0.00,meteohub,2012-11-03 13:50:00,
2012-11-03 09:52:00,32.5,26.8,30.22,NW,315,4.0,9.0,79,0.00,,,0.00,meteohub,2012-11-03 13:52:00,
2012-11-03 09:54:00,32.5,26.8,30.22,WSW,248,7.0,9.0,79,0.00,,,0.00,meteohub,2012-11-03 13:54:00,
2012-11-03 09:55:00,32.5,26.8,30.22,South,180,2.0,8.0,79,0.00,,,0.00,meteohub,2012-11-03 13:55:00,
2012-11-03 09:57:00,32.5,26.8,30.23,North,0,4.0,8.0,79,0.00,,,0.00,meteohub,2012-11-03 13:57:00,
2012-11-03 09:59:00,32.5,26.8,30.23,West,270,4.0,8.0,79,0.00,,,0.00,meteohub,2012-11-03 13:59:00,
2012-11-03 10:00:00,32.5,27.1,30.22,West,270,4.0,8.0,80,0.00,,,0.00,meteohub,2012-11-03 14:00:00,
2012-11-03 10:01:00,32.5,27.1,30.22,West,270,4.0,8.0,80,0.00,,,0.00,meteohub,2012-11-03 14:01:00,
2012-11-03 10:02:00,32.7,27.3,30.22,NE,45,6.0,8.0,80,0.00,,,0.00,meteohub,2012-11-03 14:02:00,
2012-11-03 10:04:00,32.7,27.3,30.23,NW,315,2.0,8.0,80,0.00,,,0.00,meteohub,2012-11-03 14:04:00,
2012-11-03 10:06:00,32.7,27.3,30.22,NW,315,8.0,8.0,80,0.00,,,0.00,meteohub,2012-11-03 14:06:00,
2012-11-03 10:07:00,32.7,27.3,30.22,NW,315,4.0,8.0,80,0.00,,,0.00,meteohub,2012-11-03 14:07:00,
2012-11-03 10:09:00,32.7,27.3,30.22,NW,315,6.0,8.0,80,0.00,,,0.00,meteohub,2012-11-03 14:09:00,
2012-11-03 10:11:00,32.7,27.3,30.22,West,270,4.0,8.0,80,0.00,,,0.00,meteohub,2012-11-03 14:11:00,
2012-11-03 10:12:00,32.7,27.3,30.22,NW,315,4.0,8.0,80,0.00,,,0.00,meteohub,2012-11-03 14:12:00,
2012-11-03 10:13:00,32.9,27.5,30.22,West,270,2.0,8.0,80,0.00,,,0.00,meteohub,2012-11-03 14:13:00,
2012-11-03 10:14:00,32.9,27.5,30.22,NW,315,7.0,8.0,80,0.00,,,0.00,meteohub,2012-11-03 14:14:00,
2012-11-03 10:16:00,32.9,27.5,30.22,NE,45,3.0,8.0,80,0.00,,,0.00,meteohub,2012-11-03 14:16:00,
2012-11-03 10:17:00,32.9,27.5,30.22,WSW,248,1.0,8.0,80,0.00,,,0.00,meteohub,2012-11-03 14:17:00,
2012-11-03 10:18:00,32.9,27.5,30.22,NW,315,3.0,8.0,80,0.00,,,0.00,meteohub,2012-11-03 14:18:00,
2012-11-03 10:20:00,33.1,27.5,30.22,WSW,248,7.0,8.0,80,0.00,,,0.00,meteohub,2012-11-03 14:20:00,
2012-11-03 10:22:00,33.1,27.5,30.22,West,270,8.0,8.0,80,0.00,,,0.00,meteohub,2012-11-03 14:22:00,
2012-11-03 10:24:00,33.1,27.9,30.22,West,270,4.0,8.0,81,0.00,,,0.00,meteohub,2012-11-03 14:24:00,
2012-11-03 10:26:00,33.1,27.9,30.22,NW,315,7.0,13.0,81,0.00,,,0.00,meteohub,2012-11-03 14:26:00,
2012-11-03 10:27:00,33.3,28.0,30.23,NW,315,11.0,13.0,81,0.00,,,0.00,meteohub,2012-11-03 14:27:00,
2012-11-03 10:28:00,33.1,27.9,30.22,WSW,248,8.0,13.0,81,0.00,,,0.00,meteohub,2012-11-03 14:28:00,
2012-11-03 10:29:00,33.1,27.9,30.22,NW,315,12.0,13.0,81,0.00,,,0.00,meteohub,2012-11-03 14:29:00,
2012-11-03 10:31:00,33.1,27.9,30.23,WSW,248,11.0,13.0,81,0.00,,,0.00,meteohub,2012-11-03 14:31:00,
2012-11-03 10:32:00,32.9,27.7,30.23,NW,315,4.0,13.0,81,0.00,,,0.00,meteohub,2012-11-03 14:32:00,
2012-11-03 10:33:00,32.9,27.7,30.23,NW,315,3.0,13.0,81,0.00,,,0.00,meteohub,2012-11-03 14:33:00,
2012-11-03 10:36:00,32.9,27.7,30.22,NW,315,0.0,13.0,81,0.00,,,0.00,meteohub,2012-11-03 14:36:00,
2012-11-03 10:38:00,33.1,27.9,30.22,NW,315,4.0,13.0,81,0.00,,,0.00,meteohub,2012-11-03 14:38:00,
2012-11-03 10:41:00,32.7,27.5,30.23,West,270,6.0,12.0,81,0.00,,,0.00,meteohub,2012-11-03 14:41:00,
2012-11-03 10:43:00,32.7,27.5,30.23,NW,315,4.0,12.0,81,0.00,,,0.00,meteohub,2012-11-03 14:43:00,
2012-11-03 10:44:00,32.7,27.5,30.23,NW,315,4.0,12.0,81,0.00,,,0.00,meteohub,2012-11-03 14:44:00,
2012-11-03 10:46:00,32.7,27.5,30.23,NW,315,2.0,11.0,81,0.00,,,0.00,meteohub,2012-11-03 14:46:00,
2012-11-03 10:47:00,32.7,27.5,30.23,NW,315,2.0,11.0,81,0.00,,,0.00,meteohub,2012-11-03 14:47:00,
2012-11-03 10:49:00,32.9,27.7,30.22,NW,315,2.0,11.0,81,0.00,,,0.00,meteohub,2012-11-03 14:49:00,
2012-11-03 10:51:00,33.1,27.9,30.22,WSW,248,4.0,7.0,81,0.00,,,0.00,meteohub,2012-11-03 14:51:00,
2012-11-03 10:52:00,32.9,27.7,30.22,West,270,3.0,7.0,81,0.00,,,0.00,meteohub,2012-11-03 14:52:00,
2012-11-03 10:54:00,33.1,27.9,30.23,NW,315,5.0,7.0,81,0.00,,,0.00,meteohub,2012-11-03 14:54:00,
2012-11-03 10:56:00,33.1,27.9,30.22,West,270,5.0,7.0,81,0.00,,,0.00,meteohub,2012-11-03 14:56:00,
2012-11-03 10:57:00,33.1,27.9,30.22,West,270,5.0,7.0,81,0.00,,,0.00,meteohub,2012-11-03 14:57:00,
2012-11-03 11:00:00,33.3,28.0,30.23,North,0,8.0,8.0,81,0.00,,,0.00,meteohub,2012-11-03 15:00:00,
2012-11-03 11:01:00,33.3,28.0,30.23,North,0,8.0,8.0,81,0.00,,,0.00,meteohub,2012-11-03 15:01:00,
2012-11-03 11:02:00,33.4,28.6,30.22,NW,315,8.0,8.0,82,0.00,,,0.00,meteohub,2012-11-03 15:02:00,
2012-11-03 11:03:00,33.4,28.6,30.22,NW,315,9.0,9.0,82,0.00,,,0.00,meteohub,2012-11-03 15:03:00,
2012-11-03 11:05:00,33.6,28.8,30.22,NE,45,3.0,9.0,82,0.00,,,0.00,meteohub,2012-11-03 15:05:00,
2012-11-03 11:07:00,33.8,28.9,30.22,WSW,248,8.0,9.0,82,0.00,,,0.00,meteohub,2012-11-03 15:07:00,
2012-11-03 11:08:00,34.0,29.1,30.22,NW,315,2.0,9.0,82,0.00,,,0.00,meteohub,2012-11-03 15:08:00,
2012-11-03 11:10:00,34.0,29.1,30.23,NW,315,4.0,9.0,82,0.00,,,0.00,meteohub,2012-11-03 15:10:00,
2012-11-03 11:13:00,34.0,29.1,30.22,WSW,248,5.0,11.0,82,0.00,,,0.00,meteohub,2012-11-03 15:13:00,
2012-11-03 11:14:00,34.0,29.1,30.22,West,270,4.0,11.0,82,0.00,,,0.00,meteohub,2012-11-03 15:14:00,
2012-11-03 11:15:00,34.0,29.1,30.22,NW,315,3.0,11.0,82,0.00,,,0.00,meteohub,2012-11-03 15:15:00,
2012-11-03 11:18:00,34.0,29.1,30.23,NW,315,8.0,11.0,82,0.00,,,0.00,meteohub,2012-11-03 15:18:00,
2012-11-03 11:20:00,34.0,29.1,30.23,North,0,7.0,10.0,82,0.00,,,0.00,meteohub,2012-11-03 15:20:00,
2012-11-03 11:21:00,34.2,29.3,30.22,NW,315,10.0,10.0,82,0.00,,,0.00,meteohub,2012-11-03 15:21:00,
2012-11-03 11:23:00,34.2,29.3,30.22,WNW,293,9.0,10.0,82,0.00,,,0.00,meteohub,2012-11-03 15:23:00,
2012-11-03 11:24:00,34.2,29.3,30.22,NW,315,11.0,11.0,82,0.00,,,0.00,meteohub,2012-11-03 15:24:00,
2012-11-03 11:26:00,34.3,29.5,30.22,West,270,7.0,11.0,82,0.01,,,0.01,meteohub,2012-11-03 15:26:00,
2012-11-03 11:27:00,34.3,29.5,30.22,NW,315,8.0,11.0,82,0.01,,,0.01,meteohub,2012-11-03 15:27:00,
2012-11-03 11:28:00,34.5,29.7,30.23,NW,315,6.0,11.0,82,0.01,,,0.01,meteohub,2012-11-03 15:28:00,
2012-11-03 11:29:00,36.7,31.6,30.22,North,0,11.0,11.0,82,0.01,,,0.01,meteohub,2012-11-03 15:29:00,
2012-11-03 11:32:00,34.9,30.0,30.23,NW,315,16.0,16.0,82,0.01,,,0.01,meteohub,2012-11-03 15:32:00,
2012-11-03 11:33:00,35.1,30.2,30.22,NW,315,4.0,11.0,82,0.01,,,0.01,meteohub,2012-11-03 15:33:00,
2012-11-03 11:34:00,35.2,30.4,30.23,NW,315,15.0,15.0,82,0.01,,,0.01,meteohub,2012-11-03 15:34:00,
2012-11-03 11:37:00,35.2,30.4,30.22,NW,315,8.0,16.0,82,0.01,,,0.01,meteohub,2012-11-03 15:37:00,
2012-11-03 11:39:00,35.2,30.0,30.23,North,0,0.0,16.0,81,0.01,,,0.01,meteohub,2012-11-03 15:39:00,
2012-11-03 11:40:00,35.4,30.2,30.23,NW,315,4.0,16.0,81,0.01,,,0.01,meteohub,2012-11-03 15:40:00,
2012-11-03 11:42:00,35.2,29.7,30.23,West,270,10.0,16.0,80,0.01,,,0.01,meteohub,2012-11-03 15:42:00,
2012-11-03 11:43:00,37.9,32.4,30.22,NW,315,7.0,16.0,80,0.01,,,0.01,meteohub,2012-11-03 15:43:00,
2012-11-03 11:45:00,35.2,29.3,30.23,WSW,248,9.0,16.0,79,0.01,,,0.01,meteohub,2012-11-03 15:45:00,
2012-11-03 11:47:00,34.9,28.8,30.23,NW,315,2.0,16.0,78,0.01,,,0.01,meteohub,2012-11-03 15:47:00,
2012-11-03 11:48:00,34.9,28.8,30.23,NW,315,2.0,16.0,78,0.01,,,0.01,meteohub,2012-11-03 15:48:00,
2012-11-03 11:50:00,34.9,28.4,30.23,NW,315,8.0,13.0,77,0.01,,,0.01,meteohub,2012-11-03 15:50:00,
2012-11-03 11:53:00,34.9,27.7,30.23,North,0,8.0,13.0,75,0.01,,,0.01,meteohub,2012-11-03 15:53:00,
2012-11-03 11:56:00,34.7,27.0,30.23,NW,315,0.0,11.0,73,0.01,,,0.01,meteohub,2012-11-03 15:56:00,
2012-11-03 11:57:00,34.7,27.0,30.23,NW,315,0.0,11.0,73,0.01,,,0.01,meteohub,2012-11-03 15:57:00,
2012-11-03 11:58:00,34.7,27.0,30.23,North,0,6.0,11.0,73,0.01,,,0.01,meteohub,2012-11-03 15:58:00,
2012-11-03 12:02:00,34.9,26.8,30.22,NW,315,4.0,11.0,72,0.01,,,0.01,meteohub,2012-11-03 16:02:00,
2012-11-03 12:03:00,35.1,26.2,30.23,WSW,248,8.0,11.0,70,0.01,,,0.01,meteohub,2012-11-03 16:03:00,
2012-11-03 12:04:00,35.1,26.2,30.23,West,270,0.0,11.0,70,0.01,,,0.01,meteohub,2012-11-03 16:04:00,
2012-11-03 12:07:00,35.2,26.1,30.23,NW,315,10.0,11.0,69,0.01,,,0.01,meteohub,2012-11-03 16:07:00,
2012-11-03 12:08:00,35.2,25.7,30.23,West,270,2.0,11.0,68,0.01,,,0.01,meteohub,2012-11-03 16:08:00,
2012-11-03 12:09:00,35.1,25.5,30.23,West,270,8.0,11.0,68,0.01,,,0.01,meteohub,2012-11-03 16:09:00,
2012-11-03 12:10:00,35.1,25.5,30.23,West,270,8.0,11.0,68,0.01,,,0.01,meteohub,2012-11-03 16:10:00,
2012-11-03 12:12:00,35.1,24.8,30.23,West,270,6.0,11.0,66,0.01,,,0.01,meteohub,2012-11-03 16:12:00,
2012-11-03 12:13:00,34.9,24.3,30.23,West,270,7.0,11.0,65,0.01,,,0.01,meteohub,2012-11-03 16:13:00,
2012-11-03 12:15:00,34.9,23.9,30.23,NW,315,0.0,13.0,64,0.01,,,0.01,meteohub,2012-11-03 16:15:00,
2012-11-03 12:17:00,34.9,23.9,30.23,West,270,5.0,13.0,64,0.01,,,0.01,meteohub,2012-11-03 16:17:00,
2012-11-03 12:19:00,35.1,24.1,30.23,NW,315,1.0,13.0,64,0.01,,,0.01,meteohub,2012-11-03 16:19:00,
2012-11-03 12:20:00,35.1,23.7,30.22,West,270,0.0,13.0,63,0.01,,,0.01,meteohub,2012-11-03 16:20:00,
2012-11-03 12:21:00,35.1,23.7,30.22,West,270,0.0,13.0,63,0.01,,,0.01,meteohub,2012-11-03 16:21:00,
2012-11-03 12:22:00,35.1,23.7,30.23,WSW,248,1.0,13.0,63,0.01,,,0.01,meteohub,2012-11-03 16:22:00,
2012-11-03 12:25:00,35.2,23.9,30.23,North,0,0.0,13.0,63,0.00,,,0.01,meteohub,2012-11-03 16:25:00,
2012-11-03 12:26:00,35.2,23.5,30.23,NW,315,0.0,13.0,62,0.00,,,0.01,meteohub,2012-11-03 16:26:00,
2012-11-03 12:27:00,35.2,23.5,30.23,South,180,2.0,13.0,62,0.00,,,0.01,meteohub,2012-11-03 16:27:00,
2012-11-03 12:30:00,35.2,23.2,30.23,North,0,0.0,5.0,61,0.00,,,0.01,meteohub,2012-11-03 16:30:00,
2012-11-03 12:33:00,35.2,23.2,30.23,NW,315,0.0,5.0,61,0.00,,,0.01,meteohub,2012-11-03 16:33:00,
2012-11-03 12:34:00,35.2,23.2,30.23,North,0,5.0,5.0,61,0.00,,,0.01,meteohub,2012-11-03 16:34:00,
2012-11-03 12:35:00,35.2,22.8,30.23,West,270,1.0,5.0,60,0.00,,,0.01,meteohub,2012-11-03 16:35:00,
2012-11-03 12:38:00,35.2,22.3,30.23,North,0,0.0,5.0,59,0.00,,,0.01,meteohub,2012-11-03 16:38:00,
2012-11-03 12:40:00,35.2,22.3,30.23,NE,45,1.0,5.0,59,0.00,,,0.01,meteohub,2012-11-03 16:40:00,
2012-11-03 12:43:00,35.4,22.5,30.23,West,270,0.0,5.0,59,0.00,,,0.01,meteohub,2012-11-03 16:43:00,
2012-11-03 12:45:00,35.6,22.6,30.23,NW,315,6.0,6.0,59,0.00,,,0.01,meteohub,2012-11-03 16:45:00,
2012-11-03 12:46:00,35.6,22.6,30.23,NW,315,6.0,6.0,59,0.00,,,0.01,meteohub,2012-11-03 16:46:00,
2012-11-03 12:48:00,35.8,22.5,30.22,NW,315,8.0,8.0,58,0.00,,,0.01,meteohub,2012-11-03 16:48:00,
2012-11-03 12:50:00,35.8,22.1,30.23,NW,315,11.0,11.0,57,0.00,,,0.01,meteohub,2012-11-03 16:50:00,
2012-11-03 12:51:00,35.8,22.1,30.23,NW,315,11.0,11.0,57,0.00,,,0.01,meteohub,2012-11-03 16:51:00,
2012-11-03 12:52:00,36.0,21.7,30.23,NW,315,2.0,9.0,56,0.00,,,0.01,meteohub,2012-11-03 16:52:00,
2012-11-03 12:54:00,36.0,21.7,30.22,NW,315,15.0,15.0,56,0.00,,,0.01,meteohub,2012-11-03 16:54:00,
2012-11-03 12:56:00,36.1,21.0,30.23,West,270,0.0,14.0,54,0.00,,,0.01,meteohub,2012-11-03 16:56:00,
2012-11-03 12:57:00,36.1,21.0,30.23,West,270,0.0,14.0,54,0.00,,,0.01,meteohub,2012-11-03 16:57:00,
2012-11-03 12:59:00,36.1,21.0,30.23,NW,315,0.0,14.0,54,0.00,,,0.01,meteohub,2012-11-03 16:59:00,
2012-11-03 13:01:00,36.1,21.0,30.23,NW,315,0.0,15.0,54,0.00,,,0.01,meteohub,2012-11-03 17:01:00,
2012-11-03 13:02:00,36.1,20.3,30.23,NW,315,0.0,15.0,52,0.00,,,0.01,meteohub,2012-11-03 17:02:00,
2012-11-03 13:04:00,36.1,20.3,30.23,WNW,293,2.0,15.0,52,0.00,,,0.01,meteohub,2012-11-03 17:04:00,
2012-11-03 13:05:00,36.1,20.3,30.22,West,270,8.0,15.0,52,0.00,,,0.01,meteohub,2012-11-03 17:05:00,
2012-11-03 13:07:00,36.0,19.0,30.22,NW,315,3.0,15.0,50,0.00,,,0.01,meteohub,2012-11-03 17:07:00,
2012-11-03 13:09:00,35.8,19.0,30.22,North,0,11.0,15.0,50,0.00,,,0.01,meteohub,2012-11-03 17:09:00,
2012-11-03 13:10:00,35.8,19.0,30.23,West,270,0.0,15.0,50,0.00,,,0.01,meteohub,2012-11-03 17:10:00,
2012-11-03 13:12:00,35.8,19.0,30.23,West,270,0.0,15.0,50,0.00,,,0.01,meteohub,2012-11-03 17:12:00,
2012-11-03 13:13:00,35.8,19.0,30.23,West,270,0.0,15.0,50,0.00,,,0.01,meteohub,2012-11-03 17:13:00,
2012-11-03 13:15:00,36.0,19.6,30.22,West,270,0.0,11.0,51,0.00,,,0.01,meteohub,2012-11-03 17:15:00,
2012-11-03 13:18:00,36.1,19.8,30.23,NW,315,0.0,11.0,51,0.00,,,0.01,meteohub,2012-11-03 17:18:00,
2012-11-03 13:19:00,36.1,19.8,30.22,NW,315,1.0,11.0,51,0.00,,,0.01,meteohub,2012-11-03 17:19:00,
2012-11-03 13:20:00,36.3,19.4,30.22,West,270,0.0,11.0,50,0.00,,,0.01,meteohub,2012-11-03 17:20:00,
2012-11-03 13:21:00,36.3,19.4,30.22,West,270,0.0,11.0,50,0.00,,,0.01,meteohub,2012-11-03 17:21:00,
2012-11-03 13:23:00,36.3,19.4,30.22,NW,315,0.0,11.0,50,0.00,,,0.01,meteohub,2012-11-03 17:23:00,
2012-11-03 13:24:00,36.3,19.4,30.22,North,0,0.0,11.0,50,0.00,,,0.01,meteohub,2012-11-03 17:24:00,
2012-11-03 13:26:00,36.5,19.6,30.22,NW,315,0.0,8.0,50,0.00,,,0.01,meteohub,2012-11-03 17:26:00,
2012-11-03 13:27:00,36.5,19.6,30.22,North,0,8.0,8.0,50,0.00,,,0.01,meteohub,2012-11-03 17:27:00,
2012-11-03 13:29:00,36.5,19.6,30.22,WSW,248,9.0,9.0,50,0.00,,,0.01,meteohub,2012-11-03 17:29:00,
2012-11-03 13:30:00,36.5,19.2,30.22,West,270,10.0,10.0,49,0.00,,,0.01,meteohub,2012-11-03 17:30:00,
2012-11-03 13:31:00,36.5,19.2,30.22,West,270,10.0,10.0,49,0.00,,,0.01,meteohub,2012-11-03 17:31:00,
2012-11-03 13:32:00,36.7,19.8,30.22,South,180,3.0,9.0,50,0.00,,,0.01,meteohub,2012-11-03 17:32:00,
2012-11-03 13:35:00,36.5,19.2,30.22,NW,315,11.0,11.0,49,0.00,,,0.01,meteohub,2012-11-03 17:35:00,
2012-11-03 13:36:00,36.3,19.0,30.22,NW,315,3.0,9.0,49,0.00,,,0.01,meteohub,2012-11-03 17:36:00,
2012-11-03 13:38:00,36.3,19.0,30.22,WSW,248,5.0,9.0,49,0.00,,,0.01,meteohub,2012-11-03 17:38:00,
2012-11-03 13:41:00,36.5,19.2,30.22,NW,315,1.0,11.0,49,0.00,,,0.01,meteohub,2012-11-03 17:41:00,
2012-11-03 13:42:00,36.5,19.2,30.22,West,270,2.0,11.0,49,0.00,,,0.01,meteohub,2012-11-03 17:42:00,
2012-11-03 13:43:00,36.5,19.2,30.22,NW,315,0.0,11.0,49,0.00,,,0.01,meteohub,2012-11-03 17:43:00,
2012-11-03 13:46:00,36.5,18.7,30.22,NW,315,0.0,11.0,48,0.00,,,0.01,meteohub,2012-11-03 17:46:00,
2012-11-03 13:47:00,36.7,19.4,30.22,North,0,0.0,11.0,49,0.00,,,0.01,meteohub,2012-11-03 17:47:00,
2012-11-03 13:49:00,36.7,19.4,30.22,NW,315,0.0,11.0,49,0.00,,,0.01,meteohub,2012-11-03 17:49:00,
2012-11-03 13:52:00,36.7,18.9,30.22,WSW,248,0.0,11.0,48,0.00,,,0.01,meteohub,2012-11-03 17:52:00,
2012-11-03 13:53:00,36.5,18.7,30.22,North,0,0.0,11.0,48,0.00,,,0.01,meteohub,2012-11-03 17:53:00,
2012-11-03 13:54:00,36.5,18.7,30.22,North,0,2.0,11.0,48,0.00,,,0.01,meteohub,2012-11-03 17:54:00,
2012-11-03 13:56:00,36.1,19.2,30.22,West,270,0.0,13.0,50,0.00,,,0.01,meteohub,2012-11-03 17:56:00,
2012-11-03 13:57:00,36.1,19.8,30.23,NW,315,0.0,13.0,51,0.00,,,0.01,meteohub,2012-11-03 17:57:00,
2012-11-03 13:58:00,36.1,20.3,30.22,NW,315,4.0,13.0,52,0.00,,,0.01,meteohub,2012-11-03 17:58:00,
2012-11-03 13:59:00,36.1,20.7,30.22,NW,315,4.0,13.0,53,0.00,,,0.01,meteohub,2012-11-03 17:59:00,
2012-11-03 14:01:00,36.1,20.7,30.22,West,270,0.0,13.0,53,0.00,,,0.01,meteohub,2012-11-03 18:01:00,
2012-11-03 14:03:00,36.1,21.0,30.22,West,270,0.0,13.0,54,0.00,,,0.01,meteohub,2012-11-03 18:03:00,
2012-11-03 14:04:00,36.1,21.0,30.22,NW,315,0.0,13.0,54,0.00,,,0.01,meteohub,2012-11-03 18:04:00,
2012-11-03 14:06:00,36.3,21.7,30.22,NW,315,5.0,13.0,55,0.00,,,0.01,meteohub,2012-11-03 18:06:00,
2012-11-03 14:08:00,36.5,22.3,30.22,North,0,0.0,13.0,56,0.00,,,0.01,meteohub,2012-11-03 18:08:00,
2012-11-03 14:09:00,36.7,22.5,30.22,West,270,0.0,13.0,56,0.00,,,0.01,meteohub,2012-11-03 18:09:00,
2012-11-03 14:12:00,36.9,22.6,30.22,WSW,248,11.0,11.0,56,0.00,,,0.01,meteohub,2012-11-03 18:12:00,
2012-11-03 14:13:00,36.9,21.7,30.22,WSW,248,1.0,5.0,54,0.00,,,0.01,meteohub,2012-11-03 18:13:00,
2012-11-03 14:14:00,36.9,21.4,30.23,NW,315,0.0,5.0,53,0.00,,,0.01,meteohub,2012-11-03 18:14:00,
2012-11-03 14:15:00,36.9,21.4,30.22,NW,315,0.0,11.0,53,0.00,,,0.01,meteohub,2012-11-03 18:15:00,
2012-11-03 14:17:00,36.9,20.8,30.22,NW,315,2.0,11.0,52,0.00,,,0.01,meteohub,2012-11-03 18:17:00,
2012-11-03 14:19:00,36.9,20.5,30.22,NW,315,0.0,11.0,51,0.00,,,0.01,meteohub,2012-11-03 18:19:00,
2012-11-03 14:20:00,36.9,20.5,30.22,NW,315,0.0,11.0,51,0.00,,,0.01,meteohub,2012-11-03 18:20:00,
2012-11-03 14:21:00,36.9,20.5,30.22,NW,315,0.0,11.0,51,0.00,,,0.01,meteohub,2012-11-03 18:21:00,
2012-11-03 14:23:00,36.7,20.3,30.22,NW,315,0.0,11.0,51,0.00,,,0.01,meteohub,2012-11-03 18:23:00,
2012-11-03 14:25:00,36.7,20.3,30.22,East,90,1.0,11.0,51,0.00,,,0.01,meteohub,2012-11-03 18:25:00,
2012-11-03 14:28:00,36.7,21.2,30.22,West,270,1.0,11.0,53,0.00,,,0.01,meteohub,2012-11-03 18:28:00,
2012-11-03 14:30:00,36.3,20.8,30.22,NW,315,3.0,8.0,53,0.00,,,0.01,meteohub,2012-11-03 18:30:00,
2012-11-03 14:31:00,36.3,20.8,30.22,NW,315,3.0,8.0,53,0.00,,,0.01,meteohub,2012-11-03 18:31:00,
2012-11-03 14:33:00,36.1,20.7,30.22,North,0,0.0,8.0,53,0.00,,,0.01,meteohub,2012-11-03 18:33:00,
2012-11-03 14:36:00,36.1,21.0,30.22,NW,315,0.0,8.0,54,0.00,,,0.01,meteohub,2012-11-03 18:36:00,
2012-11-03 14:38:00,36.1,21.0,30.22,West,270,0.0,8.0,54,0.00,,,0.01,meteohub,2012-11-03 18:38:00,
2012-11-03 14:39:00,36.1,21.0,30.22,WSW,248,0.0,8.0,54,0.00,,,0.01,meteohub,2012-11-03 18:39:00,
2012-11-03 14:42:00,36.7,21.6,30.22,NW,315,1.0,3.0,54,0.00,,,0.01,meteohub,2012-11-03 18:42:00,
2012-11-03 14:43:00,36.9,21.7,30.22,NW,315,0.0,3.0,54,0.00,,,0.01,meteohub,2012-11-03 18:43:00,
2012-11-03 14:44:00,37.0,21.9,30.22,West,270,0.0,3.0,54,0.00,,,0.01,meteohub,2012-11-03 18:44:00,
2012-11-03 14:48:00,37.4,21.9,30.22,WSW,248,0.0,3.0,53,0.00,,,0.01,meteohub,2012-11-03 18:48:00,
2012-11-03 14:49:00,37.4,21.9,30.22,West,270,1.0,3.0,53,0.00,,,0.01,meteohub,2012-11-03 18:49:00,
2012-11-03 14:50:00,37.4,21.4,30.22,NW,315,0.0,8.0,52,0.00,,,0.01,meteohub,2012-11-03 18:50:00,
2012-11-03 14:53:00,37.4,20.8,30.22,NW,315,0.0,8.0,51,0.00,,,0.01,meteohub,2012-11-03 18:53:00,
2012-11-03 14:54:00,37.4,20.8,30.22,NW,315,0.0,8.0,51,0.00,,,0.01,meteohub,2012-11-03 18:54:00,
2012-11-03 14:55:00,37.4,21.4,30.22,West,270,0.0,8.0,52,0.00,,,0.01,meteohub,2012-11-03 18:55:00,
2012-11-03 14:59:00,37.6,21.6,30.22,North,0,3.0,8.0,52,0.00,,,0.01,meteohub,2012-11-03 18:59:00,
2012-11-03 15:00:00,37.6,21.6,30.22,West,270,1.0,5.0,52,0.00,,,0.01,meteohub,2012-11-03 19:00:00,
2012-11-03 15:04:00,37.6,21.0,30.22,NW,315,0.0,5.0,51,0.00,,,0.01,meteohub,2012-11-03 19:04:00,
2012-11-03 15:05:00,37.6,21.6,30.22,West,270,0.0,6.0,52,0.00,,,0.01,meteohub,2012-11-03 19:05:00,
2012-11-03 15:06:00,37.6,21.6,30.22,NW,315,0.0,6.0,52,0.00,,,0.01,meteohub,2012-11-03 19:06:00,
2012-11-03 15:09:00,37.6,21.6,30.22,West,270,1.0,6.0,52,0.00,,,0.01,meteohub,2012-11-03 19:09:00,
2012-11-03 15:10:00,37.6,21.6,30.22,NW,315,1.0,6.0,52,0.00,,,0.01,meteohub,2012-11-03 19:10:00,
2012-11-03 15:11:00,37.4,21.4,30.22,WSW,248,0.0,6.0,52,0.00,,,0.01,meteohub,2012-11-03 19:11:00,
2012-11-03 15:13:00,37.4,21.4,30.22,West,270,1.0,6.0,52,0.00,,,0.01,meteohub,2012-11-03 19:13:00,
2012-11-03 15:15:00,37.4,21.9,30.22,NW,315,0.0,2.0,53,0.00,,,0.01,meteohub,2012-11-03 19:15:00,
2012-11-03 15:17:00,37.6,21.9,30.22,WSW,248,1.0,2.0,53,0.00,,,0.01,meteohub,2012-11-03 19:17:00,
2012-11-03 15:18:00,37.6,22.5,30.22,North,0,0.0,2.0,54,0.00,,,0.01,meteohub,2012-11-03 19:18:00,
2012-11-03 15:20:00,37.6,22.8,30.22,North,0,0.0,2.0,55,0.00,,,0.01,meteohub,2012-11-03 19:20:00,
2012-11-03 15:22:00,37.6,22.8,30.23,North,0,0.0,2.0,55,0.00,,,0.01,meteohub,2012-11-03 19:22:00,
2012-11-03 15:23:00,37.6,22.8,30.23,West,270,0.0,2.0,55,0.00,,,0.01,meteohub,2012-11-03 19:23:00,
2012-11-03 15:26:00,37.2,22.5,30.22,NW,315,0.0,1.0,55,0.00,,,0.01,meteohub,2012-11-03 19:26:00,
2012-11-03 15:27:00,37.2,22.5,30.22,NW,315,0.0,1.0,55,0.00,,,0.01,meteohub,2012-11-03 19:27:00,
2012-11-03 15:28:00,37.2,23.0,30.23,WSW,248,0.0,1.0,56,0.00,,,0.01,meteohub,2012-11-03 19:28:00,
2012-11-03 15:30:00,37.0,22.8,30.23,WSW,248,1.0,1.0,56,0.00,,,0.01,meteohub,2012-11-03 19:30:00,
2012-11-03 15:32:00,36.9,23.0,30.23,NW,315,0.0,1.0,57,0.00,,,0.01,meteohub,2012-11-03 19:32:00,
2012-11-03 15:33:00,36.9,23.0,30.23,NW,315,0.0,1.0,57,0.00,,,0.01,meteohub,2012-11-03 19:33:00,
2012-11-03 15:35:00,37.0,24.1,30.23,West,270,0.0,1.0,59,0.00,,,0.01,meteohub,2012-11-03 19:35:00,
2012-11-03 15:37:00,37.0,24.1,30.22,NW,315,0.0,1.0,59,0.00,,,0.01,meteohub,2012-11-03 19:37:00,
2012-11-03 15:38:00,37.0,24.1,30.22,NW,315,0.0,1.0,59,0.00,,,0.01,meteohub,2012-11-03 19:38:00,
2012-11-03 15:40:00,36.9,24.3,30.23,West,270,0.0,1.0,60,0.00,,,0.01,meteohub,2012-11-03 19:40:00,
2012-11-03 15:43:00,36.7,24.4,30.23,West,270,11.0,11.0,61,0.00,,,0.01,meteohub,2012-11-03 19:43:00,
2012-11-03 15:46:00,36.7,25.0,30.23,West,270,1.0,11.0,62,0.00,,,0.01,meteohub,2012-11-03 19:46:00,
2012-11-03 15:48:00,36.7,25.3,30.23,NW,315,0.0,11.0,63,0.00,,,0.01,meteohub,2012-11-03 19:48:00,
2012-11-03 15:49:00,36.7,25.3,30.23,NW,315,0.0,11.0,63,0.00,,,0.01,meteohub,2012-11-03 19:49:00,
2012-11-03 15:51:00,36.9,25.9,30.22,North,0,0.0,11.0,64,0.00,,,0.01,meteohub,2012-11-03 19:51:00,
2012-11-03 15:54:00,36.9,26.2,30.23,North,0,2.0,11.0,65,0.00,,,0.01,meteohub,2012-11-03 19:54:00,
2012-11-03 15:57:00,36.7,26.1,30.23,NW,315,0.0,11.0,65,0.00,,,0.01,meteohub,2012-11-03 19:57:00,
2012-11-03 15:59:00,36.9,26.6,30.23,North,0,2.0,11.0,66,0.00,,,0.01,meteohub,2012-11-03 19:59:00,
2012-11-03 16:03:00,37.0,27.1,30.23,WSW,248,2.0,6.0,67,0.01,,,0.02,meteohub,2012-11-03 20:03:00,
2012-11-03 16:04:00,37.0,27.1,30.23,NW,315,0.0,6.0,67,0.01,,,0.02,meteohub,2012-11-03 20:04:00,
2012-11-03 16:05:00,37.0,27.1,30.23,NW,315,5.0,5.0,67,0.01,,,0.02,meteohub,2012-11-03 20:05:00,
2012-11-03 16:09:00,36.9,27.0,30.23,West,270,0.0,2.0,67,0.01,,,0.02,meteohub,2012-11-03 20:09:00,
2012-11-03 16:10:00,36.9,27.0,30.23,NW,315,0.0,5.0,67,0.01,,,0.02,meteohub,2012-11-03 20:10:00,
2012-11-03 16:11:00,36.9,27.0,30.23,NW,315,2.0,5.0,67,0.01,,,0.02,meteohub,2012-11-03 20:11:00,
2012-11-03 16:15:00,36.7,26.8,30.23,West,270,0.0,5.0,67,0.01,,,0.02,meteohub,2012-11-03 20:15:00,
2012-11-03 16:16:00,36.7,26.8,30.23,West,270,0.0,5.0,67,0.01,,,0.02,meteohub,2012-11-03 20:16:00,
2012-11-03 16:20:00,36.7,27.1,30.23,NW,315,0.0,5.0,68,0.01,,,0.02,meteohub,2012-11-03 20:20:00,
2012-11-03 16:21:00,36.7,27.1,30.23,NW,315,0.0,5.0,68,0.01,,,0.02,meteohub,2012-11-03 20:21:00,
2012-11-03 16:26:00,36.5,27.0,30.22,NW,315,3.0,3.0,68,0.01,,,0.02,meteohub,2012-11-03 20:26:00,
2012-11-03 16:27:00,36.5,27.0,30.22,NE,45,1.0,2.0,68,0.01,,,0.02,meteohub,2012-11-03 20:27:00,
2012-11-03 16:31:00,36.5,27.3,30.23,NW,315,0.0,6.0,69,0.01,,,0.02,meteohub,2012-11-03 20:31:00,
2012-11-03 16:32:00,36.5,27.3,30.23,NW,315,0.0,6.0,69,0.01,,,0.02,meteohub,2012-11-03 20:32:00,
2012-11-03 16:37:00,36.3,27.5,30.23,NW,315,5.0,6.0,70,0.01,,,0.02,meteohub,2012-11-03 20:37:00,
2012-11-03 16:38:00,36.3,27.5,30.23,NW,315,5.0,6.0,70,0.01,,,0.02,meteohub,2012-11-03 20:38:00,
2012-11-03 16:42:00,36.3,27.9,30.23,West,270,0.0,5.0,71,0.01,,,0.02,meteohub,2012-11-03 20:42:00,
2012-11-03 16:43:00,36.3,27.9,30.23,North,0,0.0,5.0,71,0.01,,,0.02,meteohub,2012-11-03 20:43:00,
2012-11-03 16:48:00,36.5,28.4,30.23,NE,45,1.0,5.0,72,0.01,,,0.02,meteohub,2012-11-03 20:48:00,
2012-11-03 16:53:00,36.3,28.2,30.24,West,270,0.0,5.0,72,0.01,,,0.02,meteohub,2012-11-03 20:53:00,
2012-11-03 16:54:00,36.3,28.2,30.24,West,270,0.0,5.0,72,0.01,,,0.02,meteohub,2012-11-03 20:54:00,
2012-11-03 16:59:00,36.1,28.0,30.23,North,0,1.0,4.0,72,0.01,,,0.02,meteohub,2012-11-03 20:59:00,
2012-11-03 17:00:00,36.1,28.0,30.23,NE,45,0.0,4.0,72,0.00,,,0.02,meteohub,2012-11-03 21:00:00,
2012-11-03 17:04:00,36.0,27.9,30.23,NW,315,0.0,4.0,72,0.00,,,0.02,meteohub,2012-11-03 21:04:00,
2012-11-03 17:05:00,35.8,27.7,30.23,NW,315,1.0,1.0,72,0.00,,,0.02,meteohub,2012-11-03 21:05:00,
2012-11-03 17:09:00,35.8,28.0,30.23,West,270,0.0,1.0,73,0.00,,,0.02,meteohub,2012-11-03 21:09:00,
2012-11-03 17:10:00,35.8,28.0,30.23,West,270,0.0,1.0,73,0.00,,,0.02,meteohub,2012-11-03 21:10:00,
2012-11-03 17:14:00,35.8,28.0,30.23,NW,315,3.0,3.0,73,0.00,,,0.02,meteohub,2012-11-03 21:14:00,
2012-11-03 17:15:00,35.8,28.0,30.23,NW,315,0.0,4.0,73,0.00,,,0.02,meteohub,2012-11-03 21:15:00,
2012-11-03 17:20:00,35.8,28.0,30.23,NW,315,0.0,4.0,73,0.00,,,0.02,meteohub,2012-11-03 21:20:00,
2012-11-03 17:21:00,35.8,28.0,30.23,West,270,0.0,4.0,73,0.00,,,0.02,meteohub,2012-11-03 21:21:00,
2012-11-03 17:25:00,35.8,28.4,30.24,NW,315,0.0,4.0,74,0.00,,,0.02,meteohub,2012-11-03 21:25:00,
2012-11-03 17:26:00,35.8,28.4,30.24,NW,315,0.0,4.0,74,0.00,,,0.02,meteohub,2012-11-03 21:26:00,
2012-11-03 17:31:00,35.8,28.4,30.24,NW,315,0.0,1.0,74,0.00,,,0.02,meteohub,2012-11-03 21:31:00,
2012-11-03 17:32:00,35.8,28.4,30.24,NW,315,0.0,1.0,74,0.00,,,0.02,meteohub,2012-11-03 21:32:00,
2012-11-03 17:36:00,36.0,28.4,30.24,West,270,2.0,0.0,74,0.00,,,0.02,meteohub,2012-11-03 21:36:00,
2012-11-03 17:37:00,36.0,28.4,30.24,NW,315,0.0,0.0,74,0.00,,,0.02,meteohub,2012-11-03 21:37:00,
2012-11-03 17:38:00,36.0,28.4,30.23,NW,315,0.0,0.0,74,0.00,,,0.02,meteohub,2012-11-03 21:38:00,
2012-11-03 17:42:00,36.0,28.4,30.24,West,270,6.0,6.0,74,0.00,,,0.02,meteohub,2012-11-03 21:42:00,
2012-11-03 17:43:00,36.0,28.4,30.24,NW,315,6.0,6.0,74,0.00,,,0.02,meteohub,2012-11-03 21:43:00,
2012-11-03 17:47:00,35.8,28.4,30.23,NW,315,0.0,6.0,74,0.00,,,0.02,meteohub,2012-11-03 21:47:00,
2012-11-03 17:48:00,35.8,28.4,30.23,NW,315,0.0,6.0,74,0.00,,,0.02,meteohub,2012-11-03 21:48:00,
2012-11-03 17:53:00,35.6,28.2,30.24,NW,315,0.0,6.0,74,0.00,,,0.02,meteohub,2012-11-03 21:53:00,
2012-11-03 17:58:00,35.4,27.7,30.23,NW,315,0.0,6.0,73,0.00,,,0.02,meteohub,2012-11-03 21:58:00,
2012-11-03 17:59:00,35.4,27.7,30.24,NE,45,0.0,6.0,73,0.00,,,0.02,meteohub,2012-11-03 21:59:00,
2012-11-03 18:03:00,35.4,27.7,30.23,NE,45,0.0,5.0,73,0.00,,,0.02,meteohub,2012-11-03 22:03:00,
2012-11-03 18:04:00,35.4,27.7,30.23,NE,45,0.0,5.0,73,0.00,,,0.02,meteohub,2012-11-03 22:04:00,
2012-11-03 18:09:00,35.4,27.7,30.23,West,270,0.0,5.0,73,0.00,,,0.02,meteohub,2012-11-03 22:09:00,
2012-11-03 18:14:00,35.4,27.7,30.23,West,270,0.0,5.0,73,0.00,,,0.02,meteohub,2012-11-03 22:14:00,
2012-11-03 18:19:00,35.2,27.5,30.23,North,0,0.0,1.0,73,0.00,,,0.02,meteohub,2012-11-03 22:19:00,
2012-11-03 18:20:00,35.2,27.5,30.22,NW,315,0.0,1.0,73,0.00,,,0.02,meteohub,2012-11-03 22:20:00,
2012-11-03 18:24:00,35.1,27.3,30.23,West,270,0.0,0.0,73,0.00,,,0.02,meteohub,2012-11-03 22:24:00,
2012-11-03 18:25:00,35.1,27.3,30.23,West,270,0.0,0.0,73,0.00,,,0.02,meteohub,2012-11-03 22:25:00,
2012-11-03 18:30:00,34.9,27.5,30.23,WSW,248,0.0,0.0,74,0.00,,,0.02,meteohub,2012-11-03 22:30:00,
2012-11-03 18:31:00,34.9,27.5,30.23,WSW,248,0.0,0.0,74,0.00,,,0.02,meteohub,2012-11-03 22:31:00,
2012-11-03 18:35:00,34.7,27.3,30.24,NW,315,0.0,1.0,74,0.00,,,0.02,meteohub,2012-11-03 22:35:00,
2012-11-03 18:36:00,34.9,27.5,30.24,West,270,0.0,1.0,74,0.00,,,0.02,meteohub,2012-11-03 22:36:00,
2012-11-03 18:37:00,34.9,27.5,30.24,West,270,0.0,1.0,74,0.00,,,0.02,meteohub,2012-11-03 22:37:00,
2012-11-03 18:40:00,34.9,27.5,30.24,West,270,0.0,1.0,74,0.00,,,0.02,meteohub,2012-11-03 22:40:00,
2012-11-03 18:42:00,34.9,27.5,30.24,West,270,0.0,1.0,74,0.00,,,0.02,meteohub,2012-11-03 22:42:00,
2012-11-03 18:43:00,34.9,27.5,30.24,NW,315,0.0,1.0,74,0.00,,,0.02,meteohub,2012-11-03 22:43:00,
2012-11-03 18:47:00,34.9,27.5,30.24,NW,315,2.0,2.0,74,0.00,,,0.02,meteohub,2012-11-03 22:47:00,
2012-11-03 18:49:00,34.9,27.7,30.24,NW,315,0.0,1.0,75,0.00,,,0.02,meteohub,2012-11-03 22:49:00,
2012-11-03 18:53:00,35.1,27.9,30.24,NW,315,0.0,2.0,75,0.00,,,0.02,meteohub,2012-11-03 22:53:00,
2012-11-03 18:55:00,35.1,27.9,30.24,North,0,0.0,2.0,75,0.00,,,0.02,meteohub,2012-11-03 22:55:00,
2012-11-03 18:58:00,35.1,27.9,30.24,NW,315,0.0,2.0,75,0.00,,,0.02,meteohub,2012-11-03 22:58:00,
2012-11-03 18:59:00,35.1,27.9,30.24,NW,315,0.0,2.0,75,0.00,,,0.02,meteohub,2012-11-03 22:59:00,
2012-11-03 19:00:00,35.1,27.9,30.24,NW,315,0.0,2.0,75,0.00,,,0.02,meteohub,2012-11-03 23:00:00,
2012-11-03 19:04:00,35.1,28.2,30.24,NW,315,0.0,2.0,76,0.00,,,0.02,meteohub,2012-11-03 23:04:00,
2012-11-03 19:06:00,35.1,28.2,30.24,West,270,0.0,0.0,76,0.00,,,0.02,meteohub,2012-11-03 23:06:00,
2012-11-03 19:09:00,35.1,28.2,30.23,NW,315,0.0,0.0,76,0.00,,,0.02,meteohub,2012-11-03 23:09:00,
2012-11-03 19:12:00,35.1,28.2,30.24,NW,315,0.0,0.0,76,0.00,,,0.02,meteohub,2012-11-03 23:12:00,
2012-11-03 19:14:00,35.1,28.2,30.24,NW,315,0.0,0.0,76,0.00,,,0.02,meteohub,2012-11-03 23:14:00,
2012-11-03 19:18:00,35.1,28.2,30.24,North,0,0.0,0.0,76,0.00,,,0.02,meteohub,2012-11-03 23:18:00,
2012-11-03 19:20:00,35.1,28.6,30.24,West,270,0.0,0.0,77,0.00,,,0.02,meteohub,2012-11-03 23:20:00,
2012-11-03 19:22:00,35.1,28.2,30.24,NW,315,0.0,0.0,76,0.00,,,0.02,meteohub,2012-11-03 23:22:00,
2012-11-03 19:25:00,35.1,28.6,30.24,NW,315,0.0,0.0,77,0.00,,,0.02,meteohub,2012-11-03 23:25:00,
2012-11-03 19:26:00,35.1,28.6,30.24,North,0,0.0,0.0,77,0.00,,,0.02,meteohub,2012-11-03 23:26:00,
2012-11-03 19:28:00,35.1,28.2,30.24,NW,315,0.0,0.0,76,0.00,,,0.02,meteohub,2012-11-03 23:28:00,
2012-11-03 19:31:00,35.1,28.2,30.24,North,0,0.0,5.0,76,0.00,,,0.02,meteohub,2012-11-03 23:31:00,
2012-11-03 19:34:00,35.1,28.2,30.24,North,0,0.0,5.0,76,0.00,,,0.02,meteohub,2012-11-03 23:34:00,
2012-11-03 19:36:00,35.1,27.9,30.24,NW,315,1.0,5.0,75,0.00,,,0.02,meteohub,2012-11-03 23:36:00,
2012-11-03 19:39:00,35.1,27.3,30.24,North,0,0.0,5.0,73,0.00,,,0.02,meteohub,2012-11-03 23:39:00,
2012-11-03 19:41:00,35.2,26.8,30.24,North,0,0.0,5.0,71,0.01,,,0.04,meteohub,2012-11-03 23:41:00,
2012-11-03 19:42:00,35.2,26.8,30.24,North,0,0.0,5.0,71,0.01,,,0.04,meteohub,2012-11-03 23:42:00,
2012-11-03 19:46:00,35.1,25.2,30.24,West,270,0.0,2.0,67,0.01,,,0.04,meteohub,2012-11-03 23:46:00,
2012-11-03 19:47:00,35.2,24.6,30.24,North,0,0.0,2.0,65,0.01,,,0.04,meteohub,2012-11-03 23:47:00,
2012-11-03 19:51:00,35.1,23.0,30.25,NE,45,0.0,2.0,61,0.01,,,0.04,meteohub,2012-11-03 23:51:00,
2012-11-03 19:52:00,35.1,23.0,30.25,NE,45,0.0,2.0,61,0.01,,,0.04,meteohub,2012-11-03 23:52:00,
2012-11-03 19:56:00,35.1,21.7,30.25,NW,315,4.0,7.0,58,0.01,,,0.04,meteohub,2012-11-03 23:56:00,
2012-11-03 19:57:00,35.1,21.7,30.25,NW,315,4.0,7.0,58,0.01,,,0.04,meteohub,2012-11-03 23:57:00,
2012-11-03 20:02:00,35.1,21.0,30.25,North,0,0.0,7.0,56,0.01,,,0.04,meteohub,2012-11-04 00:02:00,
2012-11-03 20:03:00,35.1,21.0,30.25,West,270,10.0,10.0,56,0.01,,,0.04,meteohub,2012-11-04 00:03:00,
2012-11-03 20:08:00,35.1,19.6,30.25,North,0,0.0,10.0,53,0.01,,,0.04,meteohub,2012-11-04 00:08:00,
2012-11-03 20:09:00,35.1,19.2,30.25,NW,315,0.0,10.0,52,0.01,,,0.04,meteohub,2012-11-04 00:09:00,
2012-11-03 20:13:00,35.1,18.3,30.25,NW,315,2.0,10.0,50,0.01,,,0.04,meteohub,2012-11-04 00:13:00,
2012-11-03 20:14:00,35.1,18.3,30.24,NW,315,0.0,10.0,50,0.01,,,0.04,meteohub,2012-11-04 00:14:00,
2012-11-03 20:17:00,34.9,18.1,30.25,North,0,0.0,10.0,50,0.01,,,0.04,meteohub,2012-11-04 00:17:00,
2012-11-03 20:18:00,34.9,18.1,30.25,North,0,0.0,10.0,50,0.01,,,0.04,meteohub,2012-11-04 00:18:00,
2012-11-03 20:19:00,34.9,18.1,30.25,NW,315,0.0,10.0,50,0.01,,,0.04,meteohub,2012-11-04 00:19:00,
2012-11-03 20:23:00,34.9,18.1,30.25,NW,315,0.0,2.0,50,0.01,,,0.04,meteohub,2012-11-04 00:23:00,
2012-11-03 20:25:00,34.9,18.1,30.25,NW,315,0.0,2.0,50,0.01,,,0.04,meteohub,2012-11-04 00:25:00,
2012-11-03 20:28:00,34.9,17.6,30.25,North,0,0.0,2.0,49,0.01,,,0.04,meteohub,2012-11-04 00:28:00,
2012-11-03 20:29:00,34.9,17.6,30.25,North,0,0.0,2.0,49,0.01,,,0.04,meteohub,2012-11-04 00:29:00,
2012-11-03 20:31:00,34.9,17.6,30.25,NW,315,0.0,1.0,49,0.01,,,0.04,meteohub,2012-11-04 00:31:00,
2012-11-03 20:34:00,34.9,17.6,30.25,North,0,0.0,1.0,49,0.01,,,0.04,meteohub,2012-11-04 00:34:00,
2012-11-03 20:36:00,34.9,17.6,30.25,NE,45,0.0,0.0,49,0.01,,,0.04,meteohub,2012-11-04 00:36:00,
2012-11-03 20:39:00,34.9,17.6,30.25,NW,315,0.0,0.0,49,0.01,,,0.04,meteohub,2012-11-04 00:39:00,
2012-11-03 20:40:00,34.7,17.4,30.25,North,0,0.0,0.0,49,0.00,,,0.04,meteohub,2012-11-04 00:40:00,
2012-11-03 20:41:00,34.7,17.4,30.25,NW,315,0.0,0.0,49,0.00,,,0.04,meteohub,2012-11-04 00:41:00,
2012-11-03 20:44:00,34.7,17.4,30.25,NW,315,0.0,0.0,49,0.00,,,0.04,meteohub,2012-11-04 00:44:00,
2012-11-03 20:46:00,34.7,17.1,30.25,NW,315,0.0,0.0,48,0.00,,,0.04,meteohub,2012-11-04 00:46:00,
2012-11-03 20:50:00,34.7,17.1,30.25,West,270,0.0,0.0,48,0.00,,,0.04,meteohub,2012-11-04 00:50:00,
2012-11-03 20:51:00,34.7,17.1,30.25,NW,315,0.0,0.0,48,0.00,,,0.04,meteohub,2012-11-04 00:51:00,
2012-11-03 20:55:00,34.7,17.1,30.25,NW,315,0.0,0.0,48,0.00,,,0.04,meteohub,2012-11-04 00:55:00,
2012-11-03 20:56:00,34.7,17.1,30.25,North,0,0.0,0.0,48,0.00,,,0.04,meteohub,2012-11-04 00:56:00,
2012-11-03 20:57:00,34.7,17.1,30.25,North,0,0.0,0.0,48,0.00,,,0.04,meteohub,2012-11-04 00:57:00,
2012-11-03 21:00:00,34.7,17.1,30.25,North,0,0.0,0.0,48,0.00,,,0.04,meteohub,2012-11-04 01:00:00,
2012-11-03 21:01:00,34.7,17.1,30.25,North,0,0.0,0.0,48,0.00,,,0.04,meteohub,2012-11-04 01:01:00,
2012-11-03 21:02:00,34.7,17.1,30.25,North,0,0.0,0.0,48,0.00,,,0.04,meteohub,2012-11-04 01:02:00,
2012-11-03 21:06:00,34.7,17.1,30.25,West,270,0.0,1.0,48,0.00,,,0.04,meteohub,2012-11-04 01:06:00,
2012-11-03 21:08:00,34.7,16.5,30.25,West,270,0.0,1.0,47,0.00,,,0.04,meteohub,2012-11-04 01:08:00,
2012-11-03 21:11:00,34.7,16.5,30.25,North,0,0.0,2.0,47,0.00,,,0.04,meteohub,2012-11-04 01:11:00,
2012-11-03 21:13:00,34.7,16.5,30.25,West,270,0.0,2.0,47,0.00,,,0.04,meteohub,2012-11-04 01:13:00,
2012-11-03 21:16:00,34.7,16.5,30.25,West,270,0.0,2.0,47,0.00,,,0.04,meteohub,2012-11-04 01:16:00,
2012-11-03 21:17:00,34.7,16.5,30.25,West,270,0.0,2.0,47,0.00,,,0.04,meteohub,2012-11-04 01:17:00,
2012-11-03 21:18:00,34.7,16.5,30.26,West,270,0.0,2.0,47,0.00,,,0.04,meteohub,2012-11-04 01:18:00,
2012-11-03 21:22:00,34.7,16.5,30.25,NW,315,0.0,0.0,47,0.00,,,0.04,meteohub,2012-11-04 01:22:00,
2012-11-03 21:25:00,34.7,16.5,30.26,NNW,338,0.0,0.0,47,0.00,,,0.04,meteohub,2012-11-04 01:25:00,
2012-11-03 21:27:00,34.7,16.0,30.25,North,0,0.0,0.0,46,0.00,,,0.04,meteohub,2012-11-04 01:27:00,
2012-11-03 21:29:00,34.9,15.6,30.26,NW,315,0.0,0.0,45,0.00,,,0.04,meteohub,2012-11-04 01:29:00,
2012-11-03 21:30:00,34.9,15.6,30.25,NW,315,0.0,0.0,45,0.00,,,0.04,meteohub,2012-11-04 01:30:00,
2012-11-03 21:32:00,34.9,16.2,30.26,NW,315,1.0,0.0,46,0.00,,,0.04,meteohub,2012-11-04 01:32:00,
2012-11-03 21:34:00,34.7,16.0,30.25,NW,315,0.0,0.0,46,0.00,,,0.04,meteohub,2012-11-04 01:34:00,
2012-11-03 21:35:00,34.7,16.0,30.25,NE,45,0.0,1.0,46,0.00,,,0.04,meteohub,2012-11-04 01:35:00,
2012-11-03 21:38:00,34.7,16.0,30.25,North,0,1.0,1.0,46,0.00,,,0.04,meteohub,2012-11-04 01:38:00,
2012-11-03 21:40:00,34.7,16.0,30.26,North,0,0.0,1.0,46,0.00,,,0.04,meteohub,2012-11-04 01:40:00,
2012-11-03 21:43:00,34.7,16.0,30.26,NW,315,0.0,1.0,46,0.00,,,0.04,meteohub,2012-11-04 01:43:00,
2012-11-03 21:45:00,34.7,16.5,30.26,West,270,0.0,1.0,47,0.00,,,0.04,meteohub,2012-11-04 01:45:00,
2012-11-03 21:48:00,34.7,16.0,30.26,NW,315,0.0,1.0,46,0.00,,,0.04,meteohub,2012-11-04 01:48:00,
2012-11-03 21:50:00,34.7,16.0,30.26,West,270,0.0,1.0,46,0.00,,,0.04,meteohub,2012-11-04 01:50:00,
2012-11-03 21:51:00,34.7,16.0,30.26,NW,315,0.0,1.0,46,0.00,,,0.04,meteohub,2012-11-04 01:51:00,
2012-11-03 21:53:00,34.7,16.0,30.26,NW,315,0.0,1.0,46,0.00,,,0.04,meteohub,2012-11-04 01:53:00,
2012-11-03 21:56:00,34.7,16.5,30.26,North,0,0.0,0.0,47,0.00,,,0.04,meteohub,2012-11-04 01:56:00,
2012-11-03 21:58:00,34.7,16.0,30.26,North,0,0.0,0.0,46,0.00,,,0.04,meteohub,2012-11-04 01:58:00,
2012-11-03 22:01:00,34.7,16.5,30.26,WSW,248,0.0,4.0,47,0.00,,,0.04,meteohub,2012-11-04 02:01:00,
2012-11-03 22:03:00,34.7,16.5,30.27,North,0,0.0,4.0,47,0.00,,,0.04,meteohub,2012-11-04 02:03:00,
2012-11-03 22:06:00,34.7,17.1,30.27,WSW,248,1.0,4.0,48,0.00,,,0.04,meteohub,2012-11-04 02:06:00,
2012-11-03 22:07:00,34.7,17.1,30.27,NW,315,0.0,4.0,48,0.00,,,0.04,meteohub,2012-11-04 02:07:00,
2012-11-03 22:09:00,34.7,17.1,30.27,NW,315,0.0,4.0,48,0.00,,,0.04,meteohub,2012-11-04 02:09:00,
2012-11-03 22:11:00,34.7,17.1,30.26,NW,315,0.0,4.0,48,0.00,,,0.04,meteohub,2012-11-04 02:11:00,
2012-11-03 22:12:00,34.7,17.1,30.26,West,270,0.0,4.0,48,0.00,,,0.04,meteohub,2012-11-04 02:12:00,
2012-11-03 22:14:00,34.7,17.1,30.26,West,270,0.0,4.0,48,0.00,,,0.04,meteohub,2012-11-04 02:14:00,
2012-11-03 22:17:00,34.5,16.9,30.26,NW,315,0.0,1.0,48,0.00,,,0.04,meteohub,2012-11-04 02:17:00,
2012-11-03 22:19:00,34.7,17.1,30.26,WSW,248,0.0,1.0,48,0.00,,,0.04,meteohub,2012-11-04 02:19:00,
2012-11-03 22:22:00,34.7,17.4,30.26,West,270,0.0,1.0,49,0.00,,,0.04,meteohub,2012-11-04 02:22:00,
2012-11-03 22:24:00,34.7,17.4,30.26,West,270,0.0,1.0,49,0.00,,,0.04,meteohub,2012-11-04 02:24:00,
2012-11-03 22:27:00,34.5,17.2,30.26,NW,315,0.0,0.0,49,0.00,,,0.04,meteohub,2012-11-04 02:27:00,
2012-11-03 22:30:00,34.7,17.4,30.26,NE,45,1.0,0.0,49,0.00,,,0.04,meteohub,2012-11-04 02:30:00,
2012-11-03 22:33:00,34.7,18.0,30.26,North,0,0.0,1.0,50,0.00,,,0.04,meteohub,2012-11-04 02:33:00,
2012-11-03 22:35:00,34.5,17.8,30.26,NW,315,1.0,1.0,50,0.00,,,0.04,meteohub,2012-11-04 02:35:00,
2012-11-03 22:38:00,34.5,17.8,30.26,North,0,3.0,3.0,50,0.00,,,0.04,meteohub,2012-11-04 02:38:00,
2012-11-03 22:40:00,34.7,17.1,30.26,West,270,1.0,3.0,48,0.00,,,0.04,meteohub,2012-11-04 02:40:00,
2012-11-03 22:43:00,34.5,16.9,30.26,West,270,0.0,3.0,48,0.00,,,0.04,meteohub,2012-11-04 02:43:00,
2012-11-03 22:44:00,34.5,16.9,30.26,NW,315,0.0,3.0,48,0.00,,,0.04,meteohub,2012-11-04 02:44:00,
2012-11-03 22:46:00,34.5,16.9,30.26,North,0,0.0,3.0,48,0.00,,,0.04,meteohub,2012-11-04 02:46:00,
2012-11-03 22:48:00,34.5,16.9,30.26,NW,315,0.0,3.0,48,0.00,,,0.04,meteohub,2012-11-04 02:48:00,
2012-11-03 22:49:00,34.5,16.9,30.26,West,270,0.0,3.0,48,0.00,,,0.04,meteohub,2012-11-04 02:49:00,
2012-11-03 22:51:00,34.5,16.9,30.26,NW,315,0.0,3.0,48,0.00,,,0.04,meteohub,2012-11-04 02:51:00,
2012-11-03 22:53:00,34.5,16.9,30.26,West,270,0.0,3.0,48,0.00,,,0.04,meteohub,2012-11-04 02:53:00,
2012-11-03 22:54:00,34.5,16.9,30.26,NW,315,0.0,3.0,48,0.00,,,0.04,meteohub,2012-11-04 02:54:00,
2012-11-03 22:56:00,34.5,17.2,30.26,NW,315,0.0,1.0,49,0.00,,,0.04,meteohub,2012-11-04 02:56:00,
2012-11-03 22:59:00,34.5,17.2,30.26,NW,315,0.0,1.0,49,0.00,,,0.04,meteohub,2012-11-04 02:59:00,
2012-11-03 23:00:00,34.5,17.2,30.26,NW,315,2.0,2.0,49,0.00,,,0.04,meteohub,2012-11-04 03:00:00,
2012-11-03 23:01:00,34.5,17.2,30.26,NW,315,2.0,2.0,49,0.00,,,0.04,meteohub,2012-11-04 03:01:00,
2012-11-03 23:04:00,34.3,17.2,30.26,West,270,0.0,2.0,49,0.00,,,0.04,meteohub,2012-11-04 03:04:00,
2012-11-03 23:05:00,34.5,17.2,30.26,West,270,0.0,2.0,49,0.00,,,0.04,meteohub,2012-11-04 03:05:00,
2012-11-03 23:06:00,34.5,17.2,30.26,West,270,0.0,2.0,49,0.00,,,0.04,meteohub,2012-11-04 03:06:00,
2012-11-03 23:10:00,34.5,17.2,30.26,West,270,0.0,2.0,49,0.00,,,0.04,meteohub,2012-11-04 03:10:00,
2012-11-03 23:11:00,34.5,17.2,30.26,South,180,0.0,2.0,49,0.00,,,0.04,meteohub,2012-11-04 03:11:00,
2012-11-03 23:12:00,34.5,17.2,30.26,West,270,0.0,2.0,49,0.00,,,0.04,meteohub,2012-11-04 03:12:00,
2012-11-03 23:16:00,34.5,17.2,30.26,North,0,0.0,2.0,49,0.00,,,0.04,meteohub,2012-11-04 03:16:00,
2012-11-03 23:17:00,34.3,17.6,30.26,NW,315,0.0,2.0,50,0.00,,,0.04,meteohub,2012-11-04 03:17:00,
2012-11-03 23:21:00,34.3,17.6,30.26,NW,315,0.0,1.0,50,0.00,,,0.04,meteohub,2012-11-04 03:21:00,
2012-11-03 23:23:00,34.3,18.1,30.26,West,270,0.0,1.0,51,0.00,,,0.04,meteohub,2012-11-04 03:23:00,
2012-11-03 23:27:00,34.3,18.5,30.26,West,270,0.0,0.0,52,0.00,,,0.04,meteohub,2012-11-04 03:27:00,
2012-11-03 23:28:00,34.3,18.5,30.26,West,270,0.0,0.0,52,0.00,,,0.04,meteohub,2012-11-04 03:28:00,
2012-11-03 23:32:00,34.3,19.0,30.25,NW,315,0.0,0.0,53,0.00,,,0.04,meteohub,2012-11-04 03:32:00,
2012-11-03 23:33:00,34.3,19.0,30.25,North,0,0.0,0.0,53,0.00,,,0.04,meteohub,2012-11-04 03:33:00,
2012-11-03 23:34:00,34.3,19.0,30.26,NW,315,0.0,0.0,53,0.00,,,0.04,meteohub,2012-11-04 03:34:00,
2012-11-03 23:37:00,34.3,19.0,30.25,West,270,0.0,0.0,53,0.00,,,0.04,meteohub,2012-11-04 03:37:00,
2012-11-03 23:38:00,34.3,19.0,30.25,West,270,0.0,0.0,53,0.00,,,0.04,meteohub,2012-11-04 03:38:00,
2012-11-03 23:39:00,34.3,19.0,30.26,NW,315,0.0,0.0,53,0.00,,,0.04,meteohub,2012-11-04 03:39:00,
2012-11-03 23:43:00,34.2,19.2,30.26,West,270,0.0,3.0,54,0.00,,,0.04,meteohub,2012-11-04 03:43:00,
2012-11-03 23:44:00,34.2,19.2,30.26,North,0,0.0,3.0,54,0.00,,,0.04,meteohub,2012-11-04 03:44:00,
2012-11-03 23:48:00,34.2,19.2,30.25,NW,315,0.0,3.0,54,0.00,,,0.04,meteohub,2012-11-04 03:48:00,
2012-11-03 23:49:00,34.2,19.8,30.25,NW,315,0.0,3.0,55,0.00,,,0.04,meteohub,2012-11-04 03:49:00,
2012-11-03 23:50:00,34.2,19.8,30.25,NW,315,0.0,3.0,55,0.00,,,0.04,meteohub,2012-11-04 03:50:00,
2012-11-03 23:54:00,34.2,20.1,30.25,West,270,0.0,3.0,56,0.00,,,0.04,meteohub,2012-11-04 03:54:00,
2012-11-03 23:55:00,34.2,20.1,30.25,WSW,248,0.0,0.0,56,0.00,,,0.04,meteohub,2012-11-04 03:55:00,
2012-11-03 23:59:00,34.2,20.5,30.25,NW,315,0.0,0.0,57,0.00,,,0.04,meteohub,2012-11-04 03:59:00,